DL9MFL-6 Weather Reports


time (UTC)temp
C
wind
direction
speed
KPH
gust
KPH
rain 1hr
cm
rain 24hr
cm
rain mn
cm
humidity
%
barometer
mb
20260902165550 22 262 4.8 11.3 0.00 0.00 0.00 50 1018.4
20260902165450 23 264 4.8 11.3 0.00 0.00 0.00 51 1018.4
20260902165349 23 254 4.8 11.3 0.00 0.00 0.00 50 1018.4
20260902165246 23 287 4.8 11.3 0.00 0.00 0.00 50 1018.4
20260902165228 23 256 4.8 11.3 0.00 0.00 0.00 50 1018.4
20260902165146 23 253 4.8 11.3 0.00 0.00 0.00 51 1018.4
20260902165044 23 271 4.8 11.3 0.00 0.00 0.00 50 1018.3
20260902165003 23 249 6.4 11.3 0.00 0.00 0.00 50 1018.3
20260902164951 23 248 4.8 11.3 0.00 0.00 0.00 50 1018.4
20260902164947 23 248 6.4 11.3 0.00 0.00 0.00 50 1018.3
20260902164940 23 248 6.4 11.3 0.00 0.00 0.00 50 1018.3
20260902164640 23 227 6.4 11.3 0.00 0.00 0.00 50 1018.4
20260902164538 23 241 6.4 11.3 0.00 0.00 0.00 50 1018.4
20260902164436 23 248 6.4 11.3 0.00 0.00 0.00 50 1018.4
20260902164336 23 236 6.4 11.3 0.00 0.00 0.00 50 1018.3
20260902164234 23 269 6.4 11.3 0.00 0.00 0.00 49 1018.4
20260902164228 23 271 6.4 11.3 0.00 0.00 0.00 49 1018.4
20260902164134 23 268 6.4 11.3 0.00 0.00 0.00 50 1018.4
20260902164032 23 271 6.4 12.9 0.00 0.00 0.00 49 1018.4
20260902163930 23 263 6.4 12.9 0.00 0.00 0.00 49 1018.4
20260902163830 23 275 6.4 12.9 0.00 0.00 0.00 50 1018.3
20260902163729 23 268 6.4 12.9 0.00 0.00 0.00 49 1018.4
20260902163629 23 258 6.4 12.9 0.00 0.00 0.00 49 1018.4
20260902163529 23 263 6.4 12.9 0.00 0.00 0.00 48 1018.3
20260902163429 23 264 6.4 12.9 0.00 0.00 0.00 49 1018.3
20260902163329 23 278 4.8 12.9 0.00 0.00 0.00 49 1018.3
20260902163229 23 269 4.8 12.9 0.00 0.00 0.00 49 1018.3
20260902163126 23 258 4.8 9.7 0.00 0.00 0.00 49 1018.3
20260902163026 23 255 4.8 11.3 0.00 0.00 0.00 50 1018.3
20260902162926 23 225 4.8 11.3 0.00 0.00 0.00 50 1018.3
20260902162826 23 271 6.4 12.9 0.00 0.00 0.00 49 1018.2
20260902162730 23 281 6.4 12.9 0.00 0.00 0.00 48 1018.2
20260902162724 23 257 6.4 12.9 0.00 0.00 0.00 48 1018.3
20260902162620 23 250 6.4 12.9 0.00 0.00 0.00 48 1018.3
20260902162520 23 250 6.4 12.9 0.00 0.00 0.00 48 1018.3
20260902162420 23 251 6.4 12.9 0.00 0.00 0.00 48 1018.3
20260902162320 23 246 8.0 12.9 0.00 0.00 0.00 48 1018.3
20260902162229 23 246 8.0 14.5 0.00 0.00 0.00 48 1018.3
20260902162218 23 263 8.0 14.5 0.00 0.00 0.00 48 1018.4
20260902162112 23 238 8.0 16.1 0.00 0.00 0.00 48 1018.4
20260902162013 23 285 8.0 16.1 0.00 0.00 0.00 48 1018.4
20260902161912 23 269 8.0 16.1 0.00 0.00 0.00 48 1018.4
20260902161812 23 252 8.0 16.1 0.00 0.00 0.00 48 1018.4
20260902161729 23 270 8.0 16.1 0.00 0.00 0.00 48 1018.4
20260902161711 23 269 8.0 16.1 0.00 0.00 0.00 48 1018.4
20260902161607 23 275 9.7 16.1 0.00 0.00 0.00 47 1018.3
20260902161506 23 296 8.0 16.1 0.00 0.00 0.00 47 1018.3
20260902161406 23 260 8.0 16.1 0.00 0.00 0.00 47 1018.3
20260902161306 23 268 8.0 16.1 0.00 0.00 0.00 47 1018.3
20260902161228 23 244 8.0 16.1 0.00 0.00 0.00 47 1018.3
20260902161206 23 275 8.0 16.1 0.00 0.00 0.00 47 1018.3
20260902161102 23 270 8.0 14.5 0.00 0.00 0.00 47 1018.3
20260902161002 23 269 6.4 14.5 0.00 0.00 0.00 46 1018.3
20260902160902 23 272 6.4 12.9 0.00 0.00 0.00 46 1018.3
20260902160802 23 240 6.4 12.9 0.00 0.00 0.00 47 1018.3
20260902160729 23 276 6.4 12.9 0.00 0.00 0.00 47 1018.3
20260902160721 23 284 6.4 16.1 0.00 0.00 0.00 47 1018.2
20260902160716 23 268 6.4 12.9 0.00 0.00 0.00 47 1018.2
20260902160712 23 269 6.4 14.5 0.00 0.00 0.00 47 1018.2
20260902160708 23 273 6.4 14.5 0.00 0.00 0.00 47 1018.2
20260902160448 23 263 6.4 14.5 0.00 0.00 0.00 47 1018.2
20260902160444 23 275 6.4 14.5 0.00 0.00 0.00 47 1018.2
20260902160201 23 286 6.4 16.1 0.00 0.00 0.00 47 1018.2
20260902160001 23 257 8.0 16.1 0.00 0.00 0.00 47 1018.2
20260902155901 23 232 6.4 16.1 0.00 0.00 0.00 46 1018.2
20260902155801 23 284 6.4 16.1 0.00 0.00 0.00 47 1018.2
20260902155732 23 208 6.4 16.1 0.00 0.00 0.00 47 1018.2
20260902155701 23 250 6.4 16.1 0.00 0.00 0.00 47 1018.3
20260902155601 23 238 6.4 16.1 0.00 0.00 0.00 47 1018.2
20260902155507 23 234 6.4 14.5 0.00 0.00 0.00 48 1018.2
20260902155501 23 275 6.4 16.1 0.00 0.00 0.00 48 1018.2
20260902155448 23 244 6.4 16.1 0.00 0.00 0.00 48 1018.2
20260902155444 23 236 6.4 16.1 0.00 0.00 0.00 48 1018.2
20260902155201 23 223 6.4 14.5 0.00 0.00 0.00 49 1018.2
20260902155100 23 267 6.4 14.5 0.00 0.00 0.00 49 1018.2
20260902155000 23 250 6.4 14.5 0.00 0.00 0.00 47 1018.2
20260902154900 23 270 6.4 14.5 0.00 0.00 0.00 47 1018.2
20260902154800 23 274 8.0 14.5 0.00 0.00 0.00 48 1018.2
20260902154729 23 279 8.0 14.5 0.00 0.00 0.00 48 1018.2
20260902154700 23 268 8.0 16.1 0.00 0.00 0.00 48 1018.2
20260902154600 23 279 8.0 19.3 0.00 0.00 0.00 47 1018.2
20260902154500 23 239 8.0 19.3 0.00 0.00 0.00 47 1018.2
20260902154400 23 276 9.7 19.3 0.00 0.00 0.00 47 1018.1
20260902154300 23 272 8.0 19.3 0.00 0.00 0.00 47 1018.1
20260902154228 23 269 8.0 19.3 0.00 0.00 0.00 47 1018.1
20260902154200 23 265 9.7 19.3 0.00 0.00 0.00 47 1018.1
20260902154100 23 272 9.7 19.3 0.00 0.00 0.00 47 1018.1
20260902154001 23 267 9.7 19.3 0.00 0.00 0.00 48 1018.1
20260902153901 23 199 9.7 19.3 0.00 0.00 0.00 47 1018.2
20260902153802 23 254 9.7 19.3 0.00 0.00 0.00 45 1018.2
20260902153729 23 225 9.7 19.3 0.00 0.00 0.00 45 1018.2
20260902153701 23 198 8.0 19.3 0.00 0.00 0.00 45 1018.2
20260902153600 23 188 8.0 17.7 0.00 0.00 0.00 45 1018.1
20260902153500 23 205 8.0 17.7 0.00 0.00 0.00 47 1018.1
20260902153359 23 238 8.0 17.7 0.00 0.00 0.00 47 1018.2
20260902153259 24 236 8.0 12.9 0.00 0.00 0.00 49 1018.2
20260902153229 24 203 8.0 12.9 0.00 0.00 0.00 49 1018.2
20260902153153 24 220 8.0 12.9 0.00 0.00 0.00 49 1018.1
20260902153054 24 216 8.0 12.9 0.00 0.00 0.00 48 1018.2
20260902152954 24 211 8.0 12.9 0.00 0.00 0.00 47 1018.2
20260902152854 24 200 8.0 12.9 0.00 0.00 0.00 47 1018.2
20260902152754 24 221 8.0 12.9 0.00 0.00 0.00 47 1018.2
20260902152728 24 226 8.0 14.5 0.00 0.00 0.00 47 1018.2
20260902152648 24 234 8.0 17.7 0.00 0.00 0.00 47 1018.2
20260902152548 24 242 8.0 17.7 0.00 0.00 0.00 46 1018.2
20260902152448 24 229 8.0 17.7 0.00 0.00 0.00 46 1018.3
20260902152348 24 219 8.0 17.7 0.00 0.00 0.00 46 1018.3
20260902152248 24 223 8.0 17.7 0.00 0.00 0.00 45 1018.3
20260902152230 24 213 8.0 17.7 0.00 0.00 0.00 45 1018.3
20260902152144 24 288 9.7 17.7 0.00 0.00 0.00 46 1018.3
20260902152044 24 254 9.7 17.7 0.00 0.00 0.00 46 1018.3
20260902151944 24 234 9.7 17.7 0.00 0.00 0.00 45 1018.3
20260902151844 24 252 9.7 17.7 0.00 0.00 0.00 46 1018.3
20260902151742 24 248 11.3 17.7 0.00 0.00 0.00 46 1018.4
20260902151728 24 229 11.3 17.7 0.00 0.00 0.00 46 1018.4
20260902151636 24 276 11.3 22.5 0.00 0.00 0.00 45 1018.3
20260902151536 24 269 11.3 22.5 0.00 0.00 0.00 44 1018.3
20260902151454 24 267 9.7 22.5 0.00 0.00 0.00 44 1018.4
20260902151448 24 285 11.3 22.5 0.00 0.00 0.00 44 1018.3
20260902151444 24 263 9.7 22.5 0.00 0.00 0.00 44 1018.3
20260902151440 24 259 9.7 22.5 0.00 0.00 0.00 44 1018.4
20260902151129 24 265 11.3 22.5 0.00 0.00 0.00 44 1018.3
20260902151030 24 258 9.7 22.5 0.00 0.00 0.00 45 1018.4
20260902150930 24 263 9.7 22.5 0.00 0.00 0.00 44 1018.4
20260902150829 24 229 9.7 22.5 0.00 0.00 0.00 44 1018.4
20260902150729 25 226 9.7 22.5 0.00 0.00 0.00 44 1018.4
20260902150630 25 210 9.7 17.7 0.00 0.00 0.00 44 1018.4
20260902150529 25 240 9.7 17.7 0.00 0.00 0.00 44 1018.4
20260902150429 25 231 8.0 17.7 0.00 0.00 0.00 44 1018.4
20260902150329 25 258 8.0 17.7 0.00 0.00 0.00 44 1018.4
20260902150229 25 258 8.0 17.7 0.00 0.00 0.00 44 1018.4
20260902150224 25 281 8.0 17.7 0.00 0.00 0.00 44 1018.4
20260902150129 25 279 8.0 16.1 0.00 0.00 0.00 43 1018.4
20260902150030 25 217 8.0 16.1 0.00 0.00 0.00 46 1018.4
20260902145929 25 251 8.0 16.1 0.00 0.00 0.00 46 1018.4
20260902145829 25 242 9.7 16.1 0.00 0.00 0.00 45 1018.4
20260902145729 25 239 9.7 16.1 0.00 0.00 0.00 45 1018.4
20260902145717 25 223 9.7 16.1 0.00 0.00 0.00 45 1018.4
20260902145629 25 225 9.7 16.1 0.00 0.00 0.00 44 1018.4
20260902145529 25 237 9.7 16.1 0.00 0.00 0.00 46 1018.4
20260902145429 25 219 9.7 16.1 0.00 0.00 0.00 44 1018.4
20260902145328 25 252 9.7 16.1 0.00 0.00 0.00 45 1018.3
20260902145228 25 249 9.7 16.1 0.00 0.00 0.00 45 1018.4
20260902145211 25 246 9.7 16.1 0.00 0.00 0.00 45 1018.4
20260902145129 25 262 9.7 16.1 0.00 0.00 0.00 45 1018.4
20260902145029 25 267 8.0 16.1 0.00 0.00 0.00 46 1018.3
20260902144925 25 215 8.0 16.1 0.00 0.00 0.00 46 1018.3
20260902144824 25 215 8.0 16.1 0.00 0.00 0.00 46 1018.3
20260902144724 25 221 8.0 16.1 0.00 0.00 0.00 47 1018.3
20260902144711 25 227 8.0 16.1 0.00 0.00 0.00 48 1018.3
20260902144624 25 288 8.0 16.1 0.00 0.00 0.00 48 1018.3
20260902144524 25 254 8.0 14.5 0.00 0.00 0.00 46 1018.3
20260902144440 25 214 8.0 16.1 0.00 0.00 0.00 47 1018.4
20260902144430 25 230 8.0 16.1 0.00 0.00 0.00 46 1018.4
20260902144425 25 212 8.0 16.1 0.00 0.00 0.00 48 1018.4
20260902144421 25 211 8.0 16.1 0.00 0.00 0.00 47 1018.4
20260902144118 25 195 8.0 16.1 0.00 0.00 0.00 47 1018.3
20260902144018 25 230 8.0 16.1 0.00 0.00 0.00 47 1018.4
20260902143938 25 222 8.0 16.1 0.00 0.00 0.00 48 1018.4
20260902143930 25 225 8.0 16.1 0.00 0.00 0.00 47 1018.4
20260902143926 25 248 8.0 16.1 0.00 0.00 0.00 47 1018.4
20260902143922 25 227 8.0 16.1 0.00 0.00 0.00 48 1018.4
20260902143612 25 221 8.0 16.1 0.00 0.00 0.00 48 1018.4
20260902143511 25 227 8.0 16.1 0.00 0.00 0.00 48 1018.4
20260902143406 25 234 8.0 17.7 0.00 0.00 0.00 47 1018.4
20260902143306 25 213 9.7 17.7 0.00 0.00 0.00 46 1018.4
20260902143210 25 237 9.7 17.7 0.00 0.00 0.00 45 1018.4
20260902143206 25 242 9.7 17.7 0.00 0.00 0.00 45 1018.4
20260902143143 25 265 8.0 22.5 0.00 0.00 0.00 46 1018.4
20260902143139 25 196 11.3 22.5 0.00 0.00 0.00 46 1018.4
20260902143135 25 221 9.7 17.7 0.00 0.00 0.00 45 1018.4
20260902143131 25 224 11.3 17.7 0.00 0.00 0.00 44 1018.4
20260902143127 25 217 11.3 19.3 0.00 0.00 0.00 44 1018.4
20260902143123 25 215 11.3 22.5 0.00 0.00 0.00 45 1018.4
20260902142906 25 213 11.3 22.5 0.00 0.00 0.00 46 1018.4
20260902142647 25 324 11.3 22.5 0.00 0.00 0.00 45 1018.4
20260902142643 25 274 11.3 22.5 0.00 0.00 0.00 46 1018.5
20260902142425 25 202 9.7 22.5 0.00 0.00 0.00 47 1018.5
20260902142421 25 258 9.7 22.5 0.00 0.00 0.00 47 1018.5
20260902142204 25 261 8.0 22.5 0.00 0.00 0.00 46 1018.4
20260902142104 25 257 8.0 22.5 0.00 0.00 0.00 47 1018.4
20260902142002 25 261 6.4 22.5 0.00 0.00 0.00 46 1018.5
20260902141902 25 240 6.4 22.5 0.00 0.00 0.00 47 1018.4
20260902141802 25 221 6.4 20.9 0.00 0.00 0.00 47 1018.4
20260902141711 25 225 6.4 12.9 0.00 0.00 0.00 47 1018.4
20260902141702 25 209 6.4 12.9 0.00 0.00 0.00 47 1018.4
20260902141602 25 255 6.4 12.9 0.00 0.00 0.00 46 1018.4
20260902141502 25 245 6.4 14.5 0.00 0.00 0.00 46 1018.4
20260902141431 25 265 8.0 14.5 0.00 0.00 0.00 46 1018.4
20260902141425 25 246 6.4 14.5 0.00 0.00 0.00 45 1018.4
20260902141421 25 213 6.4 14.5 0.00 0.00 0.00 46 1018.4
20260902141201 25 248 8.0 14.5 0.00 0.00 0.00 46 1018.4
20260902141101 25 244 8.0 14.5 0.00 0.00 0.00 46 1018.5
20260902141001 25 194 9.7 19.3 0.00 0.00 0.00 45 1018.5
20260902140901 25 244 9.7 19.3 0.00 0.00 0.00 45 1018.5
20260902140801 25 240 9.7 19.3 0.00 0.00 0.00 46 1018.5
20260902140710 25 278 9.7 19.3 0.00 0.00 0.00 45 1018.5
20260902140701 25 274 9.7 19.3 0.00 0.00 0.00 45 1018.5
20260902140601 25 249 9.7 19.3 0.00 0.00 0.00 45 1018.5
20260902140501 25 251 9.7 19.3 0.00 0.00 0.00 45 1018.5
20260902140432 25 277 9.7 19.3 0.00 0.00 0.00 45 1018.5
20260902140425 25 268 9.7 19.3 0.00 0.00 0.00 47 1018.5
20260902140421 25 221 9.7 19.3 0.00 0.00 0.00 45 1018.5
20260902140201 25 295 9.7 19.3 0.00 0.00 0.00 46 1018.5
20260902140001 25 269 8.0 17.7 0.00 0.00 0.00 47 1018.5
20260902135901 25 193 8.0 16.1 0.00 0.00 0.00 47 1018.6
20260902135801 25 230 8.0 16.1 0.00 0.00 0.00 46 1018.6
20260902135710 25 226 9.7 16.1 0.00 0.00 0.00 47 1018.5
20260902135703 25 200 9.7 16.1 0.00 0.00 0.00 47 1018.5
20260902135659 24 260 9.7 17.7 0.00 0.00 0.00 48 1018.6
20260902135644 25 266 9.7 17.7 0.00 0.00 0.00 47 1018.5
20260902135640 25 291 9.7 17.7 0.00 0.00 0.00 46 1018.5
20260902135425 25 300 9.7 17.7 0.00 0.00 0.00 48 1018.5
20260902135421 25 242 9.7 17.7 0.00 0.00 0.00 48 1018.6
20260902135158 24 235 9.7 17.7 0.00 0.00 0.00 48 1018.6
20260902135057 24 250 8.0 17.7 0.00 0.00 0.00 49 1018.6
20260902134954 24 232 8.0 17.7 0.00 0.00 0.00 48 1018.6
20260902134855 24 319 8.0 17.7 0.00 0.00 0.00 48 1018.6
20260902134754 24 290 8.0 17.7 0.00 0.00 0.00 48 1018.6
20260902134710 24 263 8.0 17.7 0.00 0.00 0.00 47 1018.7
20260902134654 24 236 8.0 17.7 0.00 0.00 0.00 47 1018.7
20260902134552 24 273 8.0 16.1 0.00 0.00 0.00 47 1018.6
20260902134450 24 239 8.0 16.1 0.00 0.00 0.00 46 1018.6
20260902134350 24 269 8.0 16.1 0.00 0.00 0.00 47 1018.6
20260902134250 24 256 8.0 16.1 0.00 0.00 0.00 47 1018.6
20260902134208 24 324 8.0 16.1 0.00 0.00 0.00 47 1018.6
20260902134147 25 319 8.0 16.1 0.00 0.00 0.00 47 1018.6
20260902134046 25 273 8.0 16.1 0.00 0.00 0.00 46 1018.6
20260902133941 25 262 8.0 16.1 0.00 0.00 0.00 47 1018.7
20260902133929 25 263 6.4 16.1 0.00 0.00 0.00 48 1018.6
20260902133922 25 279 8.0 16.1 0.00 0.00 0.00 47 1018.6
20260902133918 25 281 6.4 16.1 0.00 0.00 0.00 47 1018.6
20260902133642 25 278 6.4 16.1 0.00 0.00 0.00 48 1018.6
20260902133542 25 284 6.4 16.1 0.00 0.00 0.00 48 1018.7
20260902133442 25 270 6.4 14.5 0.00 0.00 0.00 51 1018.7
20260902133342 25 273 8.0 17.7 0.00 0.00 0.00 51 1018.6
20260902133242 24 286 8.0 17.7 0.00 0.00 0.00 51 1018.7
20260902133208 24 252 8.0 17.7 0.00 0.00 0.00 51 1018.6
20260902133140 24 241 8.0 17.7 0.00 0.00 0.00 49 1018.6
20260902133039 24 233 9.7 17.7 0.00 0.00 0.00 50 1018.7
20260902132939 24 277 9.7 17.7 0.00 0.00 0.00 50 1018.7
20260902132935 24 287 11.3 19.3 0.00 0.00 0.00 48 1018.7
20260902132924 24 296 11.3 17.7 0.00 0.00 0.00 48 1018.7
20260902132920 24 273 11.3 19.3 0.00 0.00 0.00 48 1018.7
20260902132635 24 273 11.3 19.3 0.00 0.00 0.00 48 1018.7
20260902132534 24 256 11.3 19.3 0.00 0.00 0.00 48 1018.7
20260902132434 24 224 9.7 19.3 0.00 0.00 0.00 47 1018.8
20260902132333 25 308 9.7 19.3 0.00 0.00 0.00 47 1018.7
20260902132233 25 257 9.7 19.3 0.00 0.00 0.00 47 1018.7
20260902132208 25 279 8.0 19.3 0.00 0.00 0.00 47 1018.7
20260902132134 25 262 8.0 19.3 0.00 0.00 0.00 47 1018.7
20260902132033 25 269 8.0 19.3 0.00 0.00 0.00 47 1018.7
20260902131933 25 221 6.4 19.3 0.00 0.00 0.00 47 1018.8
20260902131833 25 248 6.4 19.3 0.00 0.00 0.00 48 1018.7
20260902131732 25 251 4.8 12.9 0.00 0.00 0.00 49 1018.7
20260902131705 25 273 4.8 12.9 0.00 0.00 0.00 49 1018.7
20260902131632 25 276 4.8 11.3 0.00 0.00 0.00 49 1018.7
20260902131532 25 261 4.8 11.3 0.00 0.00 0.00 49 1018.7
20260902131430 25 296 4.8 11.3 0.00 0.00 0.00 49 1018.7
20260902131329 25 273 4.8 14.5 0.00 0.00 0.00 49 1018.7
20260902131230 25 232 4.8 14.5 0.00 0.00 0.00 49 1018.7
20260902131205 25 305 6.4 14.5 0.00 0.00 0.00 50 1018.7
20260902131129 25 306 6.4 14.5 0.00 0.00 0.00 50 1018.7
20260902131029 25 238 6.4 14.5 0.00 0.00 0.00 49 1018.6
20260902130929 25 236 6.4 14.5 0.00 0.00 0.00 49 1018.7
20260902130830 25 236 8.0 14.5 0.00 0.00 0.00 49 1018.6
20260902130729 25 234 8.0 14.5 0.00 0.00 0.00 49 1018.7
20260902130706 25 239 9.7 14.5 0.00 0.00 0.00 49 1018.7
20260902130629 25 241 9.7 16.1 0.00 0.00 0.00 49 1018.7
20260902130529 25 242 9.7 16.1 0.00 0.00 0.00 50 1018.7
20260902130429 25 234 11.3 16.1 0.00 0.00 0.00 49 1018.7
20260902130329 25 257 11.3 16.1 0.00 0.00 0.00 49 1018.7
20260902130229 25 257 11.3 16.1 0.00 0.00 0.00 49 1018.8
20260902130203 25 254 9.7 16.1 0.00 0.00 0.00 49 1018.7
20260902130129 25 315 9.7 16.1 0.00 0.00 0.00 49 1018.7
20260902130029 25 267 9.7 16.1 0.00 0.00 0.00 48 1018.8
20260902125929 25 248 9.7 16.1 0.00 0.00 0.00 48 1018.8
20260902125828 25 257 9.7 16.1 0.00 0.00 0.00 48 1018.8
20260902125728 25 249 9.7 16.1 0.00 0.00 0.00 48 1018.7
20260902125704 25 263 9.7 16.1 0.00 0.00 0.00 49 1018.7
20260902125629 25 250 9.7 17.7 0.00 0.00 0.00 49 1018.7
20260902125529 25 269 8.0 17.7 0.00 0.00 0.00 48 1018.8
20260902125429 25 282 8.0 17.7 0.00 0.00 0.00 50 1018.7
20260902125329 25 263 8.0 17.7 0.00 0.00 0.00 49 1018.7
20260902125229 25 254 8.0 17.7 0.00 0.00 0.00 51 1018.7
20260902125203 25 259 8.0 17.7 0.00 0.00 0.00 51 1018.8
20260902125130 25 254 8.0 17.7 0.00 0.00 0.00 50 1018.8
20260902125029 25 212 8.0 17.7 0.00 0.00 0.00 47 1018.8
20260902124929 25 219 8.0 17.7 0.00 0.00 0.00 49 1018.8
20260902124824 25 215 8.0 17.7 0.00 0.00 0.00 50 1018.8
20260902124723 25 238 8.0 17.7 0.00 0.00 0.00 50 1018.8
20260902124703 25 252 8.0 17.7 0.00 0.00 0.00 50 1018.8
20260902124623 25 221 8.0 16.1 0.00 0.00 0.00 50 1018.8
20260902124522 24 271 8.0 16.1 0.00 0.00 0.00 51 1018.8
20260902124421 24 261 8.0 16.1 0.00 0.00 0.00 52 1018.8
20260902124321 24 260 8.0 16.1 0.00 0.00 0.00 50 1018.8
20260902124204 24 223 8.0 16.1 0.00 0.00 0.00 51 1018.8
20260902124121 24 232 8.0 16.1 0.00 0.00 0.00 51 1018.8
20260902124019 24 236 8.0 16.1 0.00 0.00 0.00 50 1018.8
20260902123920 24 240 8.0 16.1 0.00 0.00 0.00 51 1018.8
20260902123820 24 269 8.0 16.1 0.00 0.00 0.00 51 1018.9
20260902123720 24 254 6.4 14.5 0.00 0.00 0.00 52 1018.8
20260902123703 24 265 6.4 12.9 0.00 0.00 0.00 52 1018.8
20260902123620 24 318 6.4 12.9 0.00 0.00 0.00 53 1018.8
20260902123520 23 329 6.4 12.9 0.00 0.00 0.00 53 1018.8
20260902123429 24 244 6.4 16.1 0.00 0.00 0.00 53 1018.9
20260902123422 23 311 6.4 12.9 0.00 0.00 0.00 52 1018.8
20260902123418 23 309 6.4 12.9 0.00 0.00 0.00 53 1018.9
20260902123416 24 279 6.4 16.1 0.00 0.00 0.00 52 1018.9
20260902123119 24 259 6.4 16.1 0.00 0.00 0.00 52 1018.8
20260902123020 24 301 6.4 16.1 0.00 0.00 0.00 52 1018.9
20260902122920 24 281 6.4 16.1 0.00 0.00 0.00 52 1018.8
20260902122820 24 288 6.4 16.1 0.00 0.00 0.00 52 1018.9
20260902122720 24 263 4.8 16.1 0.00 0.00 0.00 52 1018.9
20260902122703 24 300 4.8 16.1 0.00 0.00 0.00 52 1018.9
20260902122619 24 298 6.4 16.1 0.00 0.00 0.00 53 1018.9
20260902122520 24 309 6.4 16.1 0.00 0.00 0.00 52 1019.0
20260902122415 24 305 6.4 16.1 0.00 0.00 0.00 54 1019.0
20260902122315 24 299 8.0 16.1 0.00 0.00 0.00 53 1019.0
20260902122215 23 262 8.0 19.3 0.00 0.00 0.00 52 1019.0
20260902122204 23 261 8.0 19.3 0.00 0.00 0.00 55 1019.0
20260902122115 23 202 8.0 19.3 0.00 0.00 0.00 55 1019.0
20260902122015 23 209 8.0 19.3 0.00 0.00 0.00 54 1019.1
20260902121915 23 286 9.7 19.3 0.00 0.00 0.00 54 1019.0
20260902121815 23 281 9.7 19.3 0.00 0.00 0.00 53 1019.1
20260902121715 23 272 9.7 19.3 0.00 0.00 0.00 53 1019.1
20260902121704 23 273 9.7 19.3 0.00 0.00 0.00 53 1019.1
20260902121656 23 249 6.4 14.5 0.00 0.00 0.00 55 1019.1
20260902121652 23 268 8.0 19.3 0.00 0.00 0.00 54 1019.1
20260902121644 23 270 8.0 19.3 0.00 0.00 0.00 54 1019.1
20260902121422 23 259 8.0 19.3 0.00 0.00 0.00 55 1019.1
20260902121418 23 276 6.4 19.3 0.00 0.00 0.00 55 1019.2
20260902121414 23 254 6.4 14.5 0.00 0.00 0.00 55 1019.1
20260902121115 23 330 6.4 14.5 0.00 0.00 0.00 54 1019.2
20260902121015 23 310 6.4 14.5 0.00 0.00 0.00 54 1019.1
20260902120931 23 278 8.0 19.3 0.00 0.00 0.00 55 1019.3
20260902120923 23 298 8.0 14.5 0.00 0.00 0.00 54 1019.2
20260902120919 23 303 8.0 19.3 0.00 0.00 0.00 54 1019.3
20260902120915 23 279 8.0 19.3 0.00 0.00 0.00 55 1019.3
20260902120615 23 277 8.0 19.3 0.00 0.00 0.00 53 1019.3
20260902120511 23 309 8.0 19.3 0.00 0.00 0.00 53 1019.3
20260902120411 23 289 8.0 19.3 0.00 0.00 0.00 53 1019.3
20260902120311 23 248 8.0 19.3 0.00 0.00 0.00 53 1019.3
20260902120211 23 245 9.7 19.3 0.00 0.00 0.00 52 1019.3
20260902120204 23 256 9.7 19.3 0.00 0.00 0.00 52 1019.3
20260902120112 23 290 9.7 19.3 0.00 0.00 0.00 52 1019.4
20260902120011 23 252 8.0 19.3 0.00 0.00 0.00 52 1019.4
20260902115911 23 273 8.0 19.3 0.00 0.00 0.00 53 1019.5
20260902115812 23 255 9.7 16.1 0.00 0.00 0.00 54 1019.4
20260902115712 23 288 9.7 17.7 0.00 0.00 0.00 54 1019.4
20260902115704 23 285 9.7 17.7 0.00 0.00 0.00 54 1019.4
20260902115612 23 265 9.7 17.7 0.00 0.00 0.00 54 1019.4
20260902115512 23 267 11.3 17.7 0.00 0.00 0.00 53 1019.4
20260902115412 23 252 9.7 17.7 0.00 0.00 0.00 52 1019.4
20260902115312 23 281 9.7 17.7 0.00 0.00 0.00 53 1019.3
20260902115212 23 297 11.3 17.7 0.00 0.00 0.00 52 1019.3
20260902115203 23 298 11.3 17.7 0.00 0.00 0.00 52 1019.3
20260902115111 23 333 11.3 17.7 0.00 0.00 0.00 53 1019.4
20260902115011 23 310 11.3 17.7 0.00 0.00 0.00 52 1019.3
20260902114911 23 304 11.3 17.7 0.00 0.00 0.00 53 1019.4
20260902114811 23 303 9.7 17.7 0.00 0.00 0.00 54 1019.4
20260902114712 23 319 9.7 17.7 0.00 0.00 0.00 55 1019.4
20260902114704 23 320 9.7 17.7 0.00 0.00 0.00 55 1019.4
20260902114608 23 306 8.0 17.7 0.00 0.00 0.00 53 1019.3
20260902114507 23 277 8.0 17.7 0.00 0.00 0.00 53 1019.4
20260902114427 23 265 6.4 16.1 0.00 0.00 0.00 55 1019.4
20260902114422 23 281 8.0 17.7 0.00 0.00 0.00 53 1019.3
20260902114418 23 281 6.4 17.7 0.00 0.00 0.00 53 1019.3
20260902114414 23 263 6.4 16.1 0.00 0.00 0.00 55 1019.4
20260902114107 23 275 6.4 16.1 0.00 0.00 0.00 54 1019.3
20260902114007 23 257 6.4 14.5 0.00 0.00 0.00 57 1019.3
20260902113907 23 257 4.8 14.5 0.00 0.00 0.00 56 1019.4
20260902113807 23 269 4.8 12.9 0.00 0.00 0.00 55 1019.4
20260902113708 23 240 4.8 9.7 0.00 0.00 0.00 54 1019.3
20260902113704 23 264 4.8 9.7 0.00 0.00 0.00 54 1019.3
20260902113608 23 44 4.8 9.7 0.00 0.00 0.00 53 1019.3
20260902113507 23 290 4.8 9.7 0.00 0.00 0.00 55 1019.3
20260902113422 23 271 4.8 9.7 0.00 0.00 0.00 55 1019.4
20260902113418 23 275 4.8 9.7 0.00 0.00 0.00 55 1019.3
20260902113414 23 252 4.8 9.7 0.00 0.00 0.00 56 1019.3
20260902113107 23 272 4.8 9.7 0.00 0.00 0.00 56 1019.3
20260902113008 23 340 4.8 8.0 0.00 0.00 0.00 57 1019.3
20260902112908 22 311 4.8 11.3 0.00 0.00 0.00 56 1019.4
20260902112807 22 217 4.8 11.3 0.00 0.00 0.00 56 1019.4
20260902112703 22 254 4.8 11.3 0.00 0.00 0.00 55 1019.4
20260902112603 22 311 4.8 11.3 0.00 0.00 0.00 57 1019.4
20260902112503 22 263 4.8 11.3 0.00 0.00 0.00 55 1019.4
20260902112403 22 269 4.8 11.3 0.00 0.00 0.00 56 1019.4
20260902112305 22 249 4.8 11.3 0.00 0.00 0.00 58 1019.4
20260902112204 22 248 4.8 11.3 0.00 0.00 0.00 58 1019.4
20260902112103 22 249 4.8 11.3 0.00 0.00 0.00 58 1019.4
20260902112001 22 210 4.8 11.3 0.00 0.00 0.00 56 1019.4
20260902111901 22 203 4.8 11.3 0.00 0.00 0.00 57 1019.4
20260902111801 22 208 4.8 11.3 0.00 0.00 0.00 58 1019.4
20260902111701 22 217 3.2 11.3 0.00 0.00 0.00 60 1019.4
20260902111601 22 246 3.2 9.7 0.00 0.00 0.00 61 1019.5
20260902111501 22 286 3.2 9.7 0.00 0.00 0.00 61 1019.4
20260902111401 22 259 3.2 9.7 0.00 0.00 0.00 60 1019.5
20260902111301 22 177 3.2 9.7 0.00 0.00 0.00 61 1019.4
20260902111201 22 177 3.2 9.7 0.00 0.00 0.00 59 1019.4
20260902111102 22 151 3.2 9.7 0.00 0.00 0.00 59 1019.4
20260902111001 22 202 3.2 9.7 0.00 0.00 0.00 59 1019.4
20260902110921 22 230 1.6 8.0 0.00 0.00 0.00 63 1019.5
20260902110917 22 202 3.2 9.7 0.00 0.00 0.00 59 1019.5
20260902110913 22 230 1.6 8.0 0.00 0.00 0.00 60 1019.5
20260902110651 22 230 1.6 8.0 0.00 0.00 0.00 61 1019.5
20260902110550 22 244 1.6 6.4 0.00 0.00 0.00 62 1019.5
20260902110447 22 243 1.6 6.4 0.00 0.00 0.00 65 1019.4
20260902110345 22 39 1.6 4.8 0.00 0.00 0.00 63 1019.5
20260902110244 22 39 1.6 4.8 0.00 0.00 0.00 63 1019.5
20260902110201 22 39 1.6 4.8 0.00 0.00 0.00 63 1019.5
20260902110143 22 39 1.6 4.8 0.00 0.00 0.00 65 1019.5
20260902110043 22 294 1.6 6.4 0.00 0.00 0.00 64 1019.5
20260902105941 22 294 3.2 8.0 0.00 0.00 0.00 64 1019.7
20260902105920 21 319 3.2 9.7 0.00 0.00 0.00 64 1019.7
20260902105915 21 319 3.2 9.7 0.00 0.00 0.00 64 1019.5
20260902105911 21 319 3.2 9.7 0.00 0.00 0.00 62 1019.7
20260902105638 21 319 3.2 9.7 0.00 0.00 0.00 66 1019.7
20260902105538 21 319 3.2 9.7 0.00 0.00 0.00 65 1019.7
20260902105436 21 319 3.2 9.7 0.00 0.00 0.00 64 1019.7
20260902105334 21 319 3.2 9.7 0.00 0.00 0.00 64 1019.7
20260902105231 21 319 3.2 9.7 0.00 0.00 0.00 64 1019.7
20260902105201 21 319 3.2 9.7 0.00 0.00 0.00 64 1019.8
20260902105131 21 319 3.2 9.7 0.00 0.00 0.00 64 1019.8
20260902105031 21 319 3.2 9.7 0.00 0.00 0.00 63 1019.7
20260902104931 21 331 3.2 9.7 0.00 0.00 0.00 63 1019.7
20260902104829 21 318 1.6 8.0 0.00 0.00 0.00 65 1019.8
20260902104729 21 318 3.2 8.0 0.00 0.00 0.00 64 1019.8
20260902104700 21 318 3.2 8.0 0.00 0.00 0.00 66 1019.8
20260902104630 21 318 3.2 8.0 0.00 0.00 0.00 66 1019.8
20260902104530 21 319 3.2 8.0 0.00 0.00 0.00 64 1019.8
20260902104430 21 321 3.2 8.0 0.00 0.00 0.00 65 1019.7
20260902104329 21 316 3.2 8.0 0.00 0.00 0.00 64 1019.8
20260902104229 21 302 1.6 8.0 0.00 0.00 0.00 65 1019.8
20260902104201 21 0 3.2 8.0 0.00 0.00 0.00 66 1019.8
20260902104129 21 0 3.2 8.0 0.00 0.00 0.00 66 1019.8
20260902104029 21 0 3.2 8.0 0.00 0.00 0.00 65 1019.8
20260902103929 21 0 3.2 8.0 0.00 0.00 0.00 64 1019.8
20260902103828 21 0 4.8 8.0 0.00 0.00 0.00 65 1019.9
20260902103723 21 5 4.8 8.0 0.00 0.00 0.00 65 1019.9
20260902103701 21 5 4.8 8.0 0.00 0.00 0.00 65 1019.8
20260902103623 21 5 4.8 8.0 0.00 0.00 0.00 65 1019.8
20260902103524 21 13 3.2 8.0 0.00 0.00 0.00 66 1019.8
20260902103423 21 13 3.2 8.0 0.00 0.00 0.00 65 1019.8
20260902103323 21 330 3.2 8.0 0.00 0.00 0.00 64 1019.9
20260902103204 21 330 3.2 8.0 0.00 0.00 0.00 65 1019.8
20260902103200 21 325 3.2 8.0 0.00 0.00 0.00 65 1020.0
20260902103150 21 330 3.2 8.0 0.00 0.00 0.00 66 1019.9
20260902103146 21 338 3.2 8.0 0.00 0.00 0.00 65 1019.9
20260902102921 21 355 3.2 8.0 0.00 0.00 0.00 65 1019.9
20260902102917 21 319 3.2 8.0 0.00 0.00 0.00 65 1019.9
20260902102913 21 319 3.2 8.0 0.00 0.00 0.00 65 1020.0
20260902102611 21 325 3.2 8.0 0.00 0.00 0.00 65 1019.9
20260902102512 21 325 3.2 8.0 0.00 0.00 0.00 65 1020.0
20260902102411 21 336 3.2 8.0 0.00 0.00 0.00 64 1020.0
20260902102311 21 337 3.2 8.0 0.00 0.00 0.00 66 1020.0
20260902102200 21 336 3.2 8.0 0.00 0.00 0.00 67 1020.0
20260902102105 21 319 3.2 8.0 0.00 0.00 0.00 67 1020.0
20260902102005 21 304 3.2 8.0 0.00 0.00 0.00 67 1020.0
20260902101903 21 272 3.2 8.0 0.00 0.00 0.00 66 1020.0
20260902101801 21 309 3.2 8.0 0.00 0.00 0.00 65 1020.0
20260902101701 21 309 3.2 8.0 0.00 0.00 0.00 66 1020.0
20260902101601 21 308 3.2 8.0 0.00 0.00 0.00 66 1020.0
20260902101502 21 308 3.2 8.0 0.00 0.00 0.00 67 1020.0
20260902101401 21 308 3.2 8.0 0.00 0.00 0.00 67 1020.0
20260902101301 21 308 3.2 8.0 0.00 0.00 0.00 67 1020.0
20260902101201 21 296 3.2 8.0 0.00 0.00 0.00 68 1020.0
20260902101102 20 297 3.2 8.0 0.00 0.00 0.00 68 1020.0
20260902101001 20 297 3.2 6.4 0.00 0.00 0.00 67 1020.1
20260902100922 20 303 1.6 6.4 0.00 0.00 0.00 67 1020.1
20260902100917 20 301 3.2 6.4 0.00 0.00 0.00 67 1020.0
20260902100913 20 301 1.6 6.4 0.00 0.00 0.00 68 1020.0
20260902100904 20 301 1.6 6.4 0.00 0.00 0.00 67 1020.0
20260902100644 20 301 1.6 6.4 0.00 0.00 0.00 67 1020.0
20260902100640 20 301 1.6 6.4 0.00 0.00 0.00 67 1020.0
20260902100420 20 300 1.6 6.4 0.00 0.00 0.00 67 1020.0
20260902100415 20 303 1.6 6.4 0.00 0.00 0.00 67 1020.1
20260902100411 20 303 1.6 6.4 0.00 0.00 0.00 67 1020.1
20260902100101 20 294 1.6 4.8 0.00 0.00 0.00 68 1020.1
20260902100001 20 294 3.2 6.4 0.00 0.00 0.00 66 1020.1
20260902095901 20 294 3.2 6.4 0.00 0.00 0.00 66 1020.1
20260902095801 20 294 3.2 6.4 0.00 0.00 0.00 66 1020.1
20260902095701 20 294 3.2 6.4 0.00 0.00 0.00 68 1020.1
20260902095601 20 294 3.2 6.4 0.00 0.00 0.00 67 1020.0
20260902095500 20 291 3.2 6.4 0.00 0.00 0.00 68 1020.1
20260902095427 20 325 3.2 6.4 0.00 0.00 0.00 68 1020.1
20260902095419 20 291 3.2 6.4 0.00 0.00 0.00 67 1020.0
20260902095415 20 316 3.2 6.4 0.00 0.00 0.00 66 1020.1
20260902095159 20 325 3.2 6.4 0.00 0.00 0.00 68 1020.1
20260902095059 20 325 3.2 6.4 0.00 0.00 0.00 68 1020.1
20260902094959 20 315 3.2 6.4 0.00 0.00 0.00 67 1020.1
20260902094859 20 318 1.6 6.4 0.00 0.00 0.00 67 1020.1
20260902094757 20 21 1.6 6.4 0.00 0.00 0.00 68 1020.1
20260902094701 20 21 3.2 6.4 0.00 0.00 0.00 67 1020.1
20260902094657 20 21 3.2 6.4 0.00 0.00 0.00 67 1020.1
20260902094557 20 21 3.2 6.4 0.00 0.00 0.00 67 1020.1
20260902094454 20 21 3.2 6.4 0.00 0.00 0.00 67 1020.1
20260902094353 20 20 3.2 6.4 0.00 0.00 0.00 66 1020.1
20260902094252 20 20 3.2 6.4 0.00 0.00 0.00 66 1020.1
20260902094202 20 346 1.6 6.4 0.00 0.00 0.00 67 1020.1
20260902094151 20 346 1.6 6.4 0.00 0.00 0.00 67 1020.1
20260902094049 20 329 1.6 6.4 0.00 0.00 0.00 68 1020.1
20260902093949 20 329 1.6 6.4 0.00 0.00 0.00 69 1020.1
20260902093847 20 307 1.6 6.4 0.00 0.00 0.00 69 1020.1
20260902093747 20 307 1.6 6.4 0.00 0.00 0.00 69 1020.1
20260902093701 20 307 1.6 6.4 0.00 0.00 0.00 69 1020.2
20260902093645 20 307 1.6 6.4 0.00 0.00 0.00 69 1020.2
20260902093545 20 306 1.6 4.8 0.00 0.00 0.00 69 1020.1
20260902093444 20 307 1.6 4.8 0.00 0.00 0.00 69 1020.1
20260902093415 20 307 1.6 4.8 0.00 0.00 0.00 69 1020.1
20260902093411 20 307 1.6 4.8 0.00 0.00 0.00 69 1020.1
20260902093139 20 307 1.6 4.8 0.00 0.00 0.00 69 1020.1
20260902093037 20 307 1.6 4.8 0.00 0.00 0.00 69 1020.1
20260902092937 20 307 1.6 4.8 0.00 0.00 0.00 69 1020.1
20260902092835 20 307 1.6 4.8 0.00 0.00 0.00 68 1020.1
20260902092735 20 307 1.6 4.8 0.00 0.00 0.00 67 1020.2
20260902092701 20 307 1.6 4.8 0.00 0.00 0.00 67 1020.2
20260902092633 20 307 1.6 4.8 0.00 0.00 0.00 67 1020.2
20260902092531 20 307 1.6 4.8 0.00 0.00 0.00 68 1020.2
20260902092431 20 307 1.6 4.8 0.00 0.00 0.00 68 1020.2
20260902092331 20 307 1.6 4.8 0.00 0.00 0.00 68 1020.2
20260902092231 20 308 1.6 4.8 0.00 0.00 0.00 69 1020.2
20260902092200 20 308 1.6 4.8 0.00 0.00 0.00 69 1020.1
20260902092132 20 307 1.6 4.8 0.00 0.00 0.00 69 1020.1
20260902092031 20 307 1.6 4.8 0.00 0.00 0.00 70 1020.1
20260902091931 20 307 1.6 4.8 0.00 0.00 0.00 70 1020.1
20260902091829 20 307 1.6 4.8 0.00 0.00 0.00 71 1020.1
20260902091702 20 308 1.6 4.8 0.00 0.00 0.00 71 1020.1
20260902091629 20 308 1.6 4.8 0.00 0.00 0.00 71 1020.1
20260902091529 19 308 1.6 4.8 0.00 0.00 0.00 72 1020.2
20260902091429 19 308 1.6 4.8 0.00 0.00 0.00 70 1020.2
20260902091328 19 308 1.6 4.8 0.00 0.00 0.00 72 1020.2
20260902091229 19 308 1.6 4.8 0.00 0.00 0.00 72 1020.2
20260902091201 19 308 1.6 4.8 0.00 0.00 0.00 71 1020.2
20260902091129 19 308 1.6 4.8 0.00 0.00 0.00 71 1020.2
20260902091029 19 308 1.6 4.8 0.00 0.00 0.00 73 1020.2
20260902090929 19 308 1.6 4.8 0.00 0.00 0.00 72 1020.2
20260902090829 19 308 1.6 4.8 0.00 0.00 0.00 72 1020.2
20260902090729 19 308 1.6 4.8 0.00 0.00 0.00 71 1020.2
20260902090701 19 307 1.6 4.8 0.00 0.00 0.00 72 1020.2
20260902090629 19 308 1.6 4.8 0.00 0.00 0.00 72 1020.2
20260902090529 19 307 1.6 4.8 0.00 0.00 0.00 73 1020.2
20260902090433 19 307 1.6 4.8 0.00 0.00 0.00 72 1020.1
20260902090329 19 307 3.2 4.8 0.00 0.00 0.00 73 1020.1
20260902090201 19 307 3.2 4.8 0.00 0.00 0.00 73 1020.2
20260902090129 19 310 3.2 4.8 0.00 0.00 0.00 73 1020.2
20260902090028 19 311 3.2 4.8 0.00 0.00 0.00 73 1020.2
20260902085928 19 312 1.6 4.8 0.00 0.00 0.00 73 1020.1
20260902085829 19 312 1.6 4.8 0.00 0.00 0.00 73 1020.1
20260902085701 19 312 1.6 4.8 0.00 0.00 0.00 72 1020.1
20260902085628 19 311 1.6 4.8 0.00 0.00 0.00 72 1020.1
20260902085528 19 311 1.6 4.8 0.00 0.00 0.00 72 1020.1
20260902085428 19 311 1.6 4.8 0.00 0.00 0.00 73 1020.0
20260902085328 19 312 1.6 4.8 0.00 0.00 0.00 74 1020.1
20260902085201 18 311 0.0 4.8 0.00 0.00 0.00 73 1020.0
20260902085128 18 312 0.0 4.8 0.00 0.00 0.00 73 1020.0
20260902085028 18 312 0.0 1.6 0.00 0.00 0.00 75 1020.0
20260902084929 18 312 0.0 1.6 0.00 0.00 0.00 74 1020.1
20260902084829 18 311 0.0 3.2 0.00 0.00 0.00 72 1020.1
20260902084729 18 312 0.0 3.2 0.00 0.00 0.00 73 1020.1
20260902084702 18 312 1.6 4.8 0.00 0.00 0.00 73 1020.1
20260902084629 18 312 1.6 4.8 0.00 0.00 0.00 74 1020.1
20260902084529 18 312 1.6 4.8 0.00 0.00 0.00 74 1020.1
20260902084429 18 312 1.6 6.4 0.00 0.00 0.00 75 1020.0
20260902084417 18 312 1.6 6.4 0.00 0.00 0.00 76 1020.0
20260902084413 18 312 1.6 6.4 0.00 0.00 0.00 74 1020.0
20260902084129 18 312 1.6 6.4 0.00 0.00 0.00 74 1020.0
20260902084029 18 312 1.6 6.4 0.00 0.00 0.00 75 1020.0
20260902083929 18 312 1.6 6.4 0.00 0.00 0.00 74 1020.1
20260902083823 18 312 1.6 6.4 0.00 0.00 0.00 74 1020.1
20260902083722 18 312 1.6 6.4 0.00 0.00 0.00 75 1020.1
20260902083701 18 311 1.6 6.4 0.00 0.00 0.00 75 1020.1
20260902083623 18 312 1.6 6.4 0.00 0.00 0.00 74 1020.1
20260902083523 18 311 1.6 6.4 0.00 0.00 0.00 74 1020.1
20260902083423 18 311 1.6 6.4 0.00 0.00 0.00 74 1020.1
20260902083415 18 311 3.2 6.4 0.00 0.00 0.00 74 1020.1
20260902083411 18 311 3.2 6.4 0.00 0.00 0.00 74 1020.1
20260902083117 18 311 3.2 6.4 0.00 0.00 0.00 74 1020.1
20260902083016 18 311 3.2 6.4 0.00 0.00 0.00 74 1020.1
20260902082916 18 311 3.2 6.4 0.00 0.00 0.00 74 1020.1
20260902082811 18 311 3.2 6.4 0.00 0.00 0.00 75 1020.1
20260902082711 18 311 3.2 6.4 0.00 0.00 0.00 75 1020.1
20260902082700 18 313 3.2 6.4 0.00 0.00 0.00 75 1020.1
20260902082611 18 313 1.6 6.4 0.00 0.00 0.00 75 1020.1
20260902082511 17 313 1.6 4.8 0.00 0.00 0.00 75 1020.1
20260902082411 17 211 1.6 4.8 0.00 0.00 0.00 76 1020.1
20260902082309 17 211 1.6 4.8 0.00 0.00 0.00 76 1020.1
20260902082201 17 210 1.6 4.8 0.00 0.00 0.00 76 1020.1
20260902082105 17 156 1.6 4.8 0.00 0.00 0.00 77 1020.1
20260902082002 17 154 1.6 4.8 0.00 0.00 0.00 77 1020.1
20260902081926 17 189 1.6 6.4 0.00 0.00 0.00 76 1020.1
20260902081918 17 189 1.6 6.4 0.00 0.00 0.00 76 1020.0
20260902081914 17 186 1.6 6.4 0.00 0.00 0.00 77 1020.0
20260902081601 17 186 1.6 6.4 0.00 0.00 0.00 78 1020.0
20260902081500 17 186 1.6 6.4 0.00 0.00 0.00 78 1020.0
20260902081402 17 186 1.6 6.4 0.00 0.00 0.00 77 1020.0
20260902081302 17 186 1.6 6.4 0.00 0.00 0.00 77 1020.0
20260902081200 17 186 1.6 6.4 0.00 0.00 0.00 77 1020.1
20260902081101 17 178 0.0 6.4 0.00 0.00 0.00 77 1020.0
20260902081001 17 178 0.0 6.4 0.00 0.00 0.00 79 1020.0
20260902080901 17 119 0.0 3.2 0.00 0.00 0.00 79 1020.0
20260902080801 17 119 0.0 3.2 0.00 0.00 0.00 79 1020.0
20260902080701 17 119 0.0 3.2 0.00 0.00 0.00 79 1020.0
20260902080601 16 119 0.0 3.2 0.00 0.00 0.00 80 1020.0
20260902080501 16 119 0.0 3.2 0.00 0.00 0.00 80 1019.9
20260902080401 16 119 0.0 3.2 0.00 0.00 0.00 80 1020.0
20260902080301 16 119 0.0 1.6 0.00 0.00 0.00 81 1019.9
20260902080201 16 119 0.0 6.4 0.00 0.00 0.00 81 1019.9
20260902080100 16 119 1.6 6.4 0.00 0.00 0.00 81 1019.9
20260902080000 16 119 1.6 6.4 0.00 0.00 0.00 81 1019.9
20260902075921 16 119 1.6 6.4 0.00 0.00 0.00 81 1019.8
20260902075914 16 119 1.6 6.4 0.00 0.00 0.00 81 1019.9
20260902075910 16 119 1.6 6.4 0.00 0.00 0.00 82 1019.8
20260902075558 16 119 1.6 6.4 0.00 0.00 0.00 82 1019.8
20260902075456 16 119 1.6 6.4 0.00 0.00 0.00 82 1019.8
20260902075357 16 119 1.6 6.4 0.00 0.00 0.00 82 1019.9
20260902075257 16 119 1.6 6.4 0.00 0.00 0.00 82 1019.8
20260902075152 16 119 0.0 4.8 0.00 0.00 0.00 82 1019.8
20260902075057 16 117 0.0 4.8 0.00 0.00 0.00 82 1019.8
20260902074955 16 116 0.0 3.2 0.00 0.00 0.00 81 1019.8
20260902074909 15 116 1.6 3.2 0.00 0.00 0.00 81 1019.8
20260902074901 15 115 1.6 3.2 0.00 0.00 0.00 81 1019.8
20260902074857 15 116 1.6 3.2 0.00 0.00 0.00 81 1019.8
20260902074555 15 116 1.6 3.2 0.00 0.00 0.00 81 1019.8
20260902074453 15 115 1.6 3.2 0.00 0.00 0.00 81 1019.8
20260902074404 15 115 0.0 3.2 0.00 0.00 0.00 82 1019.9
20260902074356 15 115 0.0 3.2 0.00 0.00 0.00 83 1019.9
20260902074352 15 115 0.0 3.2 0.00 0.00 0.00 82 1019.9
20260902074048 15 115 0.0 3.2 0.00 0.00 0.00 82 1019.9
20260902073947 15 115 0.0 3.2 0.00 0.00 0.00 82 1019.9
20260902073847 15 114 0.0 3.2 0.00 0.00 0.00 83 1019.9
20260902073745 15 114 0.0 3.2 0.00 0.00 0.00 84 1019.9
20260902073635 15 114 0.0 1.6 0.00 0.00 0.00 83 1019.9
20260902073545 15 114 0.0 1.6 0.00 0.00 0.00 84 1019.9
20260902073445 14 114 0.0 1.6 0.00 0.00 0.00 85 1019.9
20260902073343 14 113 0.0 0.0 0.00 0.00 0.00 85 1020.0
20260902073243 14 113 0.0 0.0 0.00 0.00 0.00 85 1020.0
20260902073143 14 113 0.0 0.0 0.00 0.00 0.00 85 1019.9
20260902073135 14 113 0.0 0.0 0.00 0.00 0.00 86 1019.9
20260902073041 14 113 0.0 0.0 0.00 0.00 0.00 85 1019.9
20260902072939 14 113 0.0 0.0 0.00 0.00 0.00 86 1019.9
20260902072839 14 113 0.0 0.0 0.00 0.00 0.00 86 1019.9
20260902072737 14 113 0.0 0.0 0.00 0.00 0.00 86 1019.9
20260902072632 14 113 0.0 0.0 0.00 0.00 0.00 86 1019.9
20260902072535 14 113 0.0 0.0 0.00 0.00 0.00 86 1019.9
20260902072433 14 113 0.0 0.0 0.00 0.00 0.00 86 1019.9
20260902072336 14 113 0.0 0.0 0.00 0.00 0.00 86 1019.9
20260902072231 14 113 0.0 0.0 0.00 0.00 0.00 86 1019.9
20260902072130 14 113 0.0 0.0 0.00 0.00 0.00 86 1020.0
20260902072029 13 113 0.0 0.0 0.00 0.00 0.00 87 1019.9
20260902071930 13 113 0.0 0.0 0.00 0.00 0.00 87 1020.0
20260902071829 13 113 0.0 1.6 0.00 0.00 0.00 87 1020.0
20260902071729 13 113 0.0 3.2 0.00 0.00 0.00 88 1020.1
20260902071628 13 113 0.0 3.2 0.00 0.00 0.00 88 1020.1
20260902071529 13 113 0.0 3.2 0.00 0.00 0.00 88 1020.1
20260902071428 13 113 0.0 3.2 0.00 0.00 0.00 88 1020.1
20260902071354 13 113 0.0 3.2 0.00 0.00 0.00 88 1020.1
20260902071346 13 113 0.0 3.2 0.00 0.00 0.00 88 1020.0
20260902071342 13 113 0.0 3.2 0.00 0.00 0.00 88 1020.0
20260902071028 13 113 0.0 3.2 0.00 0.00 0.00 88 1020.0
20260902070929 13 113 0.0 3.2 0.00 0.00 0.00 88 1020.0
20260902070830 13 113 0.0 3.2 0.00 0.00 0.00 89 1020.0
20260902070729 13 113 0.0 3.2 0.00 0.00 0.00 89 1020.0
20260902070629 13 113 0.0 3.2 0.00 0.00 0.00 89 1020.0
20260902070529 13 113 0.0 3.2 0.00 0.00 0.00 89 1020.0
20260902070429 13 113 0.0 3.2 0.00 0.00 0.00 89 1020.0
20260902070329 13 113 0.0 3.2 0.00 0.00 0.00 88 1019.9
20260902070229 13 113 0.0 3.2 0.00 0.00 0.00 89 1019.9
20260902070129 13 113 0.0 1.6 0.00 0.00 0.00 89 1019.9
20260902070028 13 113 0.0 3.2 0.00 0.00 0.00 89 1020.0
20260902065928 13 113 0.0 3.2 0.00 0.00 0.00 89 1020.0
20260902065828 13 113 0.0 3.2 0.00 0.00 0.00 89 1019.9
20260902065728 13 113 0.0 3.2 0.00 0.00 0.00 89 1020.0
20260902065628 13 113 0.0 3.2 0.00 0.00 0.00 89 1020.0
20260902065528 13 113 0.0 3.2 0.00 0.00 0.00 89 1020.0
20260902065428 13 113 0.0 3.2 0.00 0.00 0.00 88 1020.0
20260902065328 13 113 0.0 3.2 0.00 0.00 0.00 88 1020.0
20260902065229 13 113 0.0 3.2 0.00 0.00 0.00 89 1019.9
20260902065129 13 113 0.0 3.2 0.00 0.00 0.00 88 1019.9
20260902065029 13 113 0.0 3.2 0.00 0.00 0.00 89 1019.9
20260902064929 13 113 0.0 1.6 0.00 0.00 0.00 89 1019.9
20260902064829 13 113 0.0 1.6 0.00 0.00 0.00 89 1019.9
20260902064729 12 113 0.0 1.6 0.00 0.00 0.00 89 1019.9
20260902064629 12 113 0.0 1.6 0.00 0.00 0.00 89 1019.9
20260902064529 12 113 0.0 1.6 0.00 0.00 0.00 89 1019.9
20260902064429 12 113 0.0 1.6 0.00 0.00 0.00 89 1019.9
20260902064329 12 113 0.0 1.6 0.00 0.00 0.00 89 1020.0
20260902064229 12 113 0.0 1.6 0.00 0.00 0.00 90 1019.9
20260902064129 12 113 0.0 1.6 0.00 0.00 0.00 90 1019.9
20260902064028 12 113 0.0 1.6 0.00 0.00 0.00 90 1019.9
20260902063929 12 113 0.0 1.6 0.00 0.00 0.00 90 1019.9
20260902063829 12 113 0.0 3.2 0.00 0.00 0.00 90 1019.9
20260902063729 12 113 0.0 3.2 0.00 0.00 0.00 90 1019.9
20260902063629 12 113 0.0 3.2 0.00 0.00 0.00 90 1019.9
20260902063529 12 113 0.0 3.2 0.00 0.00 0.00 90 1019.9
20260902063429 12 113 0.0 3.2 0.00 0.00 0.00 90 1019.9
20260902063348 11 113 0.0 4.8 0.00 0.00 0.00 90 1020.0
20260902063343 12 113 0.0 3.2 0.00 0.00 0.00 90 1019.9
20260902063335 12 113 0.0 3.2 0.00 0.00 0.00 90 1020.0
20260902063327 12 113 0.0 3.2 0.00 0.00 0.00 90 1020.0
20260902063112 12 113 0.0 3.2 0.00 0.00 0.00 90 1019.9
20260902063108 12 113 0.0 3.2 0.00 0.00 0.00 90 1020.0
20260902062852 12 113 0.0 3.2 0.00 0.00 0.00 89 1020.0
20260902062844 12 113 0.0 4.8 0.00 0.00 0.00 89 1020.0
20260902062836 12 113 0.0 4.8 0.00 0.00 0.00 90 1020.0
20260902062615 12 113 0.0 4.8 0.00 0.00 0.00 90 1020.0
20260902062611 12 113 0.0 4.8 0.00 0.00 0.00 90 1020.0
20260902062353 12 113 0.0 4.8 0.00 0.00 0.00 90 1020.0
20260902062345 11 113 0.0 4.8 0.00 0.00 0.00 90 1020.0
20260902062341 11 113 0.0 4.8 0.00 0.00 0.00 90 1020.0
20260902062029 11 113 0.0 4.8 0.00 0.00 0.00 90 1020.0
20260902061929 11 113 1.6 4.8 0.00 0.00 0.00 91 1020.0
20260902061829 11 113 1.6 4.8 0.00 0.00 0.00 90 1020.0
20260902061729 11 113 1.6 4.8 0.00 0.00 0.00 90 1019.9
20260902061629 11 113 1.6 4.8 0.00 0.00 0.00 90 1020.0
20260902061528 11 113 1.6 4.8 0.00 0.00 0.00 90 1020.0
20260902061428 11 113 1.6 4.8 0.00 0.00 0.00 90 1020.0
20260902061329 11 112 1.6 4.8 0.00 0.00 0.00 90 1019.9
20260902061229 11 112 1.6 4.8 0.00 0.00 0.00 90 1019.9
20260902061129 11 112 1.6 4.8 0.00 0.00 0.00 90 1019.9
20260902061029 11 112 1.6 4.8 0.00 0.00 0.00 90 1019.9
20260902060929 11 112 1.6 4.8 0.00 0.00 0.00 91 1019.9
20260902060852 11 113 1.6 6.4 0.00 0.00 0.00 91 1019.9
20260902060844 11 113 1.6 6.4 0.00 0.00 0.00 91 1019.8
20260902060840 11 113 1.6 6.4 0.00 0.00 0.00 91 1019.9
20260902060528 11 112 1.6 6.4 0.00 0.00 0.00 91 1019.9
20260902060428 11 112 1.6 6.4 0.00 0.00 0.00 91 1019.9
20260902060329 11 112 1.6 6.4 0.00 0.00 0.00 91 1019.9
20260902060229 11 112 1.6 6.4 0.00 0.00 0.00 91 1019.9
20260902060129 11 113 1.6 6.4 0.00 0.00 0.00 91 1019.9
20260902060029 11 113 1.6 6.4 0.00 0.00 0.00 91 1019.9
20260902055928 11 113 1.6 6.4 0.00 0.00 0.00 91 1019.9
20260902055828 11 113 0.0 4.8 0.00 0.00 0.00 92 1019.9
20260902055728 11 113 1.6 4.8 0.00 0.00 0.00 92 1020.0
20260902055628 11 113 1.6 4.8 0.00 0.00 0.00 92 1019.9
20260902055529 10 113 1.6 4.8 0.00 0.00 0.00 92 1019.9
20260902055429 10 113 1.6 4.8 0.00 0.00 0.00 92 1019.9
20260902055353 10 113 1.6 4.8 0.00 0.00 0.00 93 1019.9
20260902055345 10 113 1.6 4.8 0.00 0.00 0.00 93 1019.9
20260902055341 10 116 1.6 4.8 0.00 0.00 0.00 93 1019.9
20260902055029 10 117 1.6 4.8 0.00 0.00 0.00 93 1019.9
20260902054929 10 116 0.0 4.8 0.00 0.00 0.00 93 1019.9
20260902054852 10 116 1.6 4.8 0.00 0.00 0.00 93 1019.9
20260902054844 10 116 1.6 4.8 0.00 0.00 0.00 93 1019.9
20260902054840 10 116 0.0 4.8 0.00 0.00 0.00 93 1019.9
20260902054529 10 116 0.0 3.2 0.00 0.00 0.00 93 1019.9
20260902054428 10 116 0.0 3.2 0.00 0.00 0.00 93 1019.9
20260902054329 10 116 0.0 3.2 0.00 0.00 0.00 93 1019.9
20260902054229 10 116 0.0 3.2 0.00 0.00 0.00 93 1019.9
20260902054128 10 116 0.0 3.2 0.00 0.00 0.00 92 1019.9
20260902054028 10 116 0.0 3.2 0.00 0.00 0.00 92 1019.9
20260902053928 10 116 0.0 3.2 0.00 0.00 0.00 92 1019.9
20260902053829 10 116 0.0 3.2 0.00 0.00 0.00 92 1019.9
20260902053732 10 116 0.0 3.2 0.00 0.00 0.00 92 1019.9
20260902053628 10 116 0.0 3.2 0.00 0.00 0.00 92 1019.9
20260902053622 10 115 0.0 3.2 0.00 0.00 0.00 92 1019.9
20260902053522 10 116 0.0 3.2 0.00 0.00 0.00 92 1019.8
20260902053423 10 116 0.0 3.2 0.00 0.00 0.00 92 1019.8
20260902053321 10 116 0.0 3.2 0.00 0.00 0.00 92 1019.8
20260902053225 10 116 0.0 3.2 0.00 0.00 0.00 92 1019.8
20260902053129 10 116 0.0 3.2 0.00 0.00 0.00 92 1019.8
20260902053118 10 116 1.6 3.2 0.00 0.00 0.00 92 1019.8
20260902053018 10 116 1.6 3.2 0.00 0.00 0.00 91 1019.8
20260902052919 10 116 1.6 3.2 0.00 0.00 0.00 91 1019.8
20260902052817 10 116 1.6 3.2 0.00 0.00 0.00 91 1019.8
20260902052719 10 116 1.6 3.2 0.00 0.00 0.00 91 1019.8
20260902052613 10 116 1.6 3.2 0.00 0.00 0.00 91 1019.8
20260902052513 10 116 1.6 3.2 0.00 0.00 0.00 92 1019.8
20260902052410 10 116 1.6 3.2 0.00 0.00 0.00 92 1019.8
20260902052310 10 116 1.6 3.2 0.00 0.00 0.00 92 1019.8
20260902052215 10 116 1.6 3.2 0.00 0.00 0.00 92 1019.8
20260902052109 10 116 1.6 3.2 0.00 0.00 0.00 92 1019.8
20260902052008 10 115 1.6 3.2 0.00 0.00 0.00 92 1019.7
20260902051908 10 116 1.6 3.2 0.00 0.00 0.00 92 1019.8
20260902051808 10 115 1.6 3.2 0.00 0.00 0.00 92 1019.8
20260902051706 10 116 1.6 3.2 0.00 0.00 0.00 92 1019.8
20260902051606 10 116 1.6 3.2 0.00 0.00 0.00 92 1019.8
20260902051504 10 116 1.6 3.2 0.00 0.00 0.00 92 1019.8
20260902051404 10 116 1.6 3.2 0.00 0.00 0.00 92 1019.7
20260902051304 10 115 1.6 3.2 0.00 0.00 0.00 92 1019.7
20260902051204 10 115 1.6 3.2 0.00 0.00 0.00 92 1019.7
20260902051113 10 115 1.6 3.2 0.00 0.00 0.00 92 1019.7
20260902051109 10 115 1.6 3.2 0.00 0.00 0.00 92 1019.7
20260902051105 10 115 1.6 3.2 0.00 0.00 0.00 92 1019.7
20260902051101 10 115 1.6 3.2 0.00 0.00 0.00 92 1019.7
20260902050846 10 115 1.6 3.2 0.00 0.00 0.00 92 1019.7
20260902050841 10 115 1.6 3.2 0.00 0.00 0.00 92 1019.7
20260902050603 10 115 1.6 3.2 0.00 0.00 0.00 92 1019.5
20260902050503 10 115 1.6 3.2 0.00 0.00 0.00 92 1019.5
20260902050403 10 115 1.6 3.2 0.00 0.00 0.00 92 1019.7
20260902050303 10 115 1.6 3.2 0.00 0.00 0.00 92 1019.7
20260902050205 9 115 1.6 3.2 0.00 0.00 0.00 92 1019.5
20260902050127 9 115 1.6 3.2 0.00 0.00 0.00 92 1019.5
20260902050004 10 115 1.6 3.2 0.00 0.00 0.00 92 1019.5
20260902045902 9 115 1.6 3.2 0.00 0.00 0.00 92 1019.5
20260902045802 10 115 1.6 3.2 0.00 0.00 0.00 92 1019.4
20260902045703 10 115 1.6 3.2 0.00 0.00 0.00 92 1019.5
20260902045602 10 115 1.6 3.2 0.00 0.00 0.00 92 1019.4
20260902045502 10 115 1.6 3.2 0.00 0.00 0.00 92 1019.4
20260902045401 10 115 1.6 3.2 0.00 0.00 0.00 92 1019.4
20260902045301 9 115 1.6 3.2 0.00 0.00 0.00 92 1019.4
20260902045201 10 115 1.6 3.2 0.00 0.00 0.00 92 1019.4
20260902045101 10 115 1.6 3.2 0.00 0.00 0.00 92 1019.4
20260902044959 9 115 1.6 3.2 0.00 0.00 0.00 92 1019.5
20260902044859 10 115 1.6 3.2 0.00 0.00 0.00 92 1019.5
20260902044845 9 116 1.6 3.2 0.00 0.00 0.00 92 1019.7
20260902044841 9 115 1.6 3.2 0.00 0.00 0.00 92 1019.5
20260902044837 9 115 1.6 3.2 0.00 0.00 0.00 92 1019.5
20260902044830 10 115 1.6 3.2 0.00 0.00 0.00 92 1019.5
20260902044608 9 116 1.6 3.2 0.00 0.00 0.00 92 1019.5
20260902044604 9 116 1.6 3.2 0.00 0.00 0.00 92 1019.7
20260902044600 9 116 1.6 3.2 0.00 0.00 0.00 92 1019.7
20260902044342 9 116 1.6 3.2 0.00 0.00 0.00 92 1019.7
20260902044338 9 116 1.6 3.2 0.00 0.00 0.00 92 1019.7
20260902044058 10 116 1.6 3.2 0.00 0.00 0.00 92 1019.7
20260902043959 9 116 1.6 3.2 0.00 0.00 0.00 92 1019.7
20260902043859 10 116 1.6 3.2 0.00 0.00 0.00 92 1019.7
20260902043841 10 116 1.6 3.2 0.00 0.00 0.00 92 1019.7
20260902043837 10 116 1.6 3.2 0.00 0.00 0.00 92 1019.7
20260902043559 10 116 1.6 3.2 0.00 0.00 0.00 92 1019.7
20260902043459 10 116 1.6 3.2 0.00 0.00 0.00 92 1019.7
20260902043359 10 116 1.6 3.2 0.00 0.00 0.00 91 1019.7
20260902043259 10 116 1.6 3.2 0.00 0.00 0.00 91 1019.5
20260902043158 10 116 1.6 3.2 0.00 0.00 0.00 92 1019.5
20260902043123 10 116 1.6 3.2 0.00 0.00 0.00 92 1019.5
20260902043054 10 116 1.6 3.2 0.00 0.00 0.00 92 1019.5
20260902042954 10 116 1.6 3.2 0.00 0.00 0.00 92 1019.5
20260902042854 10 116 1.6 3.2 0.00 0.00 0.00 92 1019.5
20260902042754 10 116 1.6 3.2 0.00 0.00 0.00 92 1019.5
20260902042654 10 115 1.6 3.2 0.00 0.00 0.00 92 1019.5
20260902042622 10 115 1.6 3.2 0.00 0.00 0.00 92 1019.5
20260902042555 10 115 1.6 3.2 0.00 0.00 0.00 92 1019.5
20260902042455 10 115 0.0 4.8 0.00 0.00 0.00 92 1019.5
20260902042355 10 115 0.0 4.8 0.00 0.00 0.00 92 1019.5
20260902042340 10 115 0.0 4.8 0.00 0.00 0.00 92 1019.5
20260902042336 10 115 0.0 4.8 0.00 0.00 0.00 92 1019.5
20260902042054 10 115 0.0 4.8 0.00 0.00 0.00 92 1019.5
20260902041954 10 115 0.0 4.8 0.00 0.00 0.00 92 1019.5
20260902041854 10 115 0.0 4.8 0.00 0.00 0.00 92 1019.7
20260902041754 10 115 0.0 4.8 0.00 0.00 0.00 91 1019.5
20260902041654 10 115 0.0 4.8 0.00 0.00 0.00 91 1019.7
20260902041622 10 115 0.0 4.8 0.00 0.00 0.00 92 1019.5
20260902041555 10 115 0.0 4.8 0.00 0.00 0.00 91 1019.5
20260902041454 10 114 0.0 0.0 0.00 0.00 0.00 91 1019.5
20260902041354 10 113 0.0 0.0 0.00 0.00 0.00 91 1019.5
20260902041254 10 113 0.0 1.6 0.00 0.00 0.00 91 1019.5
20260902041123 10 113 0.0 1.6 0.00 0.00 0.00 91 1019.5
20260902041050 10 113 0.0 1.6 0.00 0.00 0.00 91 1019.5
20260902040950 10 113 0.0 1.6 0.00 0.00 0.00 91 1019.4
20260902040850 10 113 0.0 1.6 0.00 0.00 0.00 91 1019.4
20260902040751 10 113 0.0 1.6 0.00 0.00 0.00 91 1019.4
20260902040626 10 113 0.0 1.6 0.00 0.00 0.00 91 1019.4
20260902040550 10 113 0.0 1.6 0.00 0.00 0.00 91 1019.4
20260902040451 10 113 0.0 1.6 0.00 0.00 0.00 92 1019.4
20260902040351 10 113 0.0 1.6 0.00 0.00 0.00 92 1019.4
20260902040345 10 113 0.0 3.2 0.00 0.00 0.00 91 1019.5
20260902040338 10 112 0.0 1.6 0.00 0.00 0.00 92 1019.4
20260902040334 10 113 0.0 3.2 0.00 0.00 0.00 92 1019.4
20260902040051 10 113 0.0 3.2 0.00 0.00 0.00 91 1019.5
20260902035951 10 113 0.0 3.2 0.00 0.00 0.00 91 1019.5
20260902035851 10 112 0.0 3.2 0.00 0.00 0.00 91 1019.5
20260902035844 10 112 0.0 3.2 0.00 0.00 0.00 91 1019.4
20260902035837 10 112 0.0 3.2 0.00 0.00 0.00 91 1019.5
20260902035833 10 112 0.0 3.2 0.00 0.00 0.00 91 1019.5
20260902035551 10 112 0.0 3.2 0.00 0.00 0.00 91 1019.4
20260902035451 10 112 0.0 3.2 0.00 0.00 0.00 91 1019.4
20260902035350 10 112 0.0 3.2 0.00 0.00 0.00 91 1019.5
20260902035246 10 112 0.0 3.2 0.00 0.00 0.00 91 1019.5
20260902035123 10 112 0.0 3.2 0.00 0.00 0.00 91 1019.5
20260902035046 10 112 0.0 3.2 0.00 0.00 0.00 91 1019.5
20260902034946 10 112 0.0 0.0 0.00 0.00 0.00 91 1019.5
20260902034846 10 112 0.0 0.0 0.00 0.00 0.00 91 1019.5
20260902034746 10 112 0.0 0.0 0.00 0.00 0.00 90 1019.5
20260902034622 10 112 0.0 0.0 0.00 0.00 0.00 90 1019.5
20260902034547 10 112 0.0 0.0 0.00 0.00 0.00 90 1019.5
20260902034447 10 112 0.0 0.0 0.00 0.00 0.00 90 1019.5
20260902034347 10 112 0.0 0.0 0.00 0.00 0.00 90 1019.5
20260902034246 10 112 0.0 0.0 0.00 0.00 0.00 90 1019.4
20260902034123 10 112 0.0 0.0 0.00 0.00 0.00 90 1019.5
20260902034046 10 112 0.0 0.0 0.00 0.00 0.00 90 1019.5
20260902033946 10 112 0.0 0.0 0.00 0.00 0.00 90 1019.5
20260902033846 10 112 0.0 0.0 0.00 0.00 0.00 90 1019.5
20260902033746 10 112 0.0 0.0 0.00 0.00 0.00 90 1019.5
20260902033622 10 112 0.0 0.0 0.00 0.00 0.00 90 1019.5
20260902033547 10 112 0.0 0.0 0.00 0.00 0.00 90 1019.5
20260902033447 10 112 0.0 0.0 0.00 0.00 0.00 90 1019.5
20260902033342 10 112 0.0 0.0 0.00 0.00 0.00 90 1019.5
20260902033240 10 112 0.0 0.0 0.00 0.00 0.00 90 1019.5
20260902033122 10 112 0.0 0.0 0.00 0.00 0.00 90 1019.5
20260902033034 10 112 0.0 0.0 0.00 0.00 0.00 90 1019.5
20260902032932 10 112 0.0 0.0 0.00 0.00 0.00 90 1019.5
20260902032835 10 112 0.0 0.0 0.00 0.00 0.00 90 1019.5
20260902032831 10 112 0.0 0.0 0.00 0.00 0.00 90 1019.5
20260902032827 10 112 0.0 0.0 0.00 0.00 0.00 90 1019.5
20260902032529 10 112 0.0 0.0 0.00 0.00 0.00 90 1019.5
20260902032429 10 112 0.0 0.0 0.00 0.00 0.00 90 1019.5
20260902032330 10 112 0.0 0.0 0.00 0.00 0.00 90 1019.5
20260902032326 10 112 0.0 0.0 0.00 0.00 0.00 90 1019.5
20260902032322 10 112 0.0 0.0 0.00 0.00 0.00 90 1019.5
20260902032029 10 112 0.0 0.0 0.00 0.00 0.00 90 1019.5
20260902031927 10 112 0.0 0.0 0.00 0.00 0.00 90 1019.5
20260902031828 10 112 0.0 0.0 0.00 0.00 0.00 90 1019.5
20260902031726 10 112 0.0 0.0 0.00 0.00 0.00 90 1019.5
20260902031611 10 112 0.0 0.0 0.00 0.00 0.00 90 1019.5
20260902031525 10 112 0.0 0.0 0.00 0.00 0.00 90 1019.5
20260902031422 10 112 0.0 0.0 0.00 0.00 0.00 90 1019.5
20260902031319 10 112 0.0 0.0 0.00 0.00 0.00 90 1019.7
20260902031216 10 112 0.0 0.0 0.00 0.00 0.00 90 1019.5
20260902031108 10 112 0.0 0.0 0.00 0.00 0.00 90 1019.7
20260902031016 10 112 0.0 0.0 0.00 0.00 0.00 90 1019.7
20260902030915 10 112 0.0 0.0 0.00 0.00 0.00 90 1019.7
20260902030810 10 112 0.0 0.0 0.00 0.00 0.00 90 1019.7
20260902030710 10 112 0.0 0.0 0.00 0.00 0.00 90 1019.7
20260902030607 10 112 0.0 0.0 0.00 0.00 0.00 90 1019.7
20260902030510 10 112 0.0 0.0 0.00 0.00 0.00 90 1019.7
20260902030410 10 112 0.0 0.0 0.00 0.00 0.00 90 1019.7
20260902030324 10 112 0.0 0.0 0.00 0.00 0.00 91 1019.7
20260902030320 10 112 0.0 0.0 0.00 0.00 0.00 91 1019.7
20260902030315 10 112 0.0 0.0 0.00 0.00 0.00 91 1019.7
20260902030006 10 112 0.0 0.0 0.00 0.00 0.00 91 1019.7
20260902025904 10 112 0.0 0.0 0.00 0.00 0.00 91 1019.7
20260902025802 10 111 0.0 0.0 0.00 0.00 0.00 91 1019.7
20260902025703 10 112 0.0 0.0 0.00 0.00 0.00 91 1019.7
20260902025602 10 112 0.0 0.0 0.00 0.00 0.00 91 1019.7
20260902025501 10 112 0.0 0.0 0.00 0.00 0.00 91 1019.7
20260902025401 10 111 0.0 0.0 0.00 0.00 0.00 91 1019.5
20260902025301 10 111 0.0 0.0 0.00 0.00 0.00 91 1019.7
20260902025201 10 112 0.0 0.0 0.00 0.00 0.00 91 1019.7
20260902025101 10 112 0.0 0.0 0.00 0.00 0.00 91 1019.8
20260902025001 10 111 0.0 0.0 0.00 0.00 0.00 91 1019.7
20260902024901 10 111 0.0 0.0 0.00 0.00 0.00 91 1019.7
20260902024801 10 111 0.0 0.0 0.00 0.00 0.00 91 1019.8
20260902024701 10 111 0.0 0.0 0.00 0.00 0.00 91 1019.8
20260902024600 10 111 0.0 0.0 0.00 0.00 0.00 91 1019.8
20260902024501 10 111 0.0 0.0 0.00 0.00 0.00 91 1019.7
20260902024401 10 112 0.0 0.0 0.00 0.00 0.00 91 1019.8
20260902024321 10 112 0.0 0.0 0.00 0.00 0.00 91 1019.7
20260902024317 10 111 0.0 0.0 0.00 0.00 0.00 91 1019.7
20260902024313 10 111 0.0 3.2 0.00 0.00 0.00 91 1019.5
20260902024000 10 111 0.0 3.2 0.00 0.00 0.00 91 1019.5
20260902023900 10 111 0.0 3.2 0.00 0.00 0.00 91 1019.5
20260902023801 10 111 0.0 3.2 0.00 0.00 0.00 91 1019.7
20260902023701 10 111 1.6 3.2 0.00 0.00 0.00 91 1019.7
20260902023601 10 111 1.6 3.2 0.00 0.00 0.00 91 1019.7
20260902023500 10 111 1.6 3.2 0.00 0.00 0.00 91 1019.8
20260902023400 10 111 1.6 3.2 0.00 0.00 0.00 91 1019.8
20260902023301 10 111 1.6 3.2 0.00 0.00 0.00 91 1019.8
20260902023201 10 111 1.6 3.2 0.00 0.00 0.00 91 1019.8
20260902023101 10 111 1.6 3.2 0.00 0.00 0.00 91 1019.7
20260902023000 10 111 1.6 3.2 0.00 0.00 0.00 91 1019.7
20260902022900 10 111 1.6 3.2 0.00 0.00 0.00 91 1019.7
20260902022800 10 111 1.6 3.2 0.00 0.00 0.00 91 1019.8
20260902022700 10 111 1.6 3.2 0.00 0.00 0.00 91 1019.8
20260902022601 10 111 1.6 3.2 0.00 0.00 0.00 91 1019.7
20260902022501 10 111 1.6 3.2 0.00 0.00 0.00 91 1019.7
20260902022401 10 111 1.6 3.2 0.00 0.00 0.00 91 1019.7
20260902022319 10 111 1.6 3.2 0.00 0.00 0.00 91 1019.7
20260902022315 10 113 1.6 3.2 0.00 0.00 0.00 90 1019.7
20260902022311 10 112 1.6 3.2 0.00 0.00 0.00 90 1019.7
20260902022001 10 112 1.6 3.2 0.00 0.00 0.00 90 1019.7
20260902021901 10 112 1.6 3.2 0.00 0.00 0.00 90 1019.5
20260902021820 10 112 1.6 3.2 0.00 0.00 0.00 90 1019.5
20260902021816 10 112 1.6 3.2 0.00 0.00 0.00 90 1019.5
20260902021812 10 112 1.6 4.8 0.00 0.00 0.00 90 1019.5
20260902021501 10 112 1.6 4.8 0.00 0.00 0.00 90 1019.5
20260902021400 10 112 1.6 4.8 0.00 0.00 0.00 89 1019.5
20260902021301 10 112 1.6 4.8 0.00 0.00 0.00 89 1019.5
20260902021201 10 112 1.6 4.8 0.00 0.00 0.00 89 1019.5
20260902021101 10 111 1.6 4.8 0.00 0.00 0.00 89 1019.5
20260902021001 10 111 1.6 4.8 0.00 0.00 0.00 89 1019.5
20260902020901 10 111 1.6 4.8 0.00 0.00 0.00 89 1019.5
20260902020801 10 111 1.6 4.8 0.00 0.00 0.00 90 1019.5
20260902020701 10 112 1.6 4.8 0.00 0.00 0.00 90 1019.7
20260902020601 11 112 3.2 4.8 0.00 0.00 0.00 89 1019.7
20260902020501 11 112 3.2 4.8 0.00 0.00 0.00 89 1019.7
20260902020401 11 112 3.2 4.8 0.00 0.00 0.00 89 1019.8
20260902020319 11 112 3.2 4.8 0.00 0.00 0.00 89 1019.8
20260902020315 11 112 3.2 4.8 0.00 0.00 0.00 89 1019.8
20260902020311 11 112 3.2 4.8 0.00 0.00 0.00 89 1019.9
20260902020000 11 112 1.6 4.8 0.00 0.00 0.00 89 1019.9
20260902015900 11 111 1.6 4.8 0.00 0.00 0.00 89 1019.9
20260902015800 11 111 1.6 4.8 0.00 0.00 0.00 89 1019.9
20260902015700 11 110 1.6 4.8 0.00 0.00 0.00 89 1019.8
20260902015602 11 110 1.6 3.2 0.00 0.00 0.00 89 1019.9
20260902015558 11 110 1.6 3.2 0.00 0.00 0.00 89 1019.9
20260902015458 11 109 1.6 3.2 0.00 0.00 0.00 89 1019.9
20260902015356 11 110 1.6 3.2 0.00 0.00 0.00 89 1019.9
20260902015329 11 110 1.6 3.2 0.00 0.00 0.00 88 1019.8
20260902015317 11 110 1.6 3.2 0.00 0.00 0.00 89 1019.9
20260902015313 11 110 1.6 3.2 0.00 0.00 0.00 89 1019.9
20260902015052 11 110 1.6 3.2 0.00 0.00 0.00 88 1019.8
20260902014952 11 109 1.6 3.2 0.00 0.00 0.00 88 1019.9
20260902014850 11 109 1.6 3.2 0.00 0.00 0.00 88 1019.9
20260902014750 11 109 1.6 3.2 0.00 0.00 0.00 88 1019.9
20260902014648 11 109 1.6 3.2 0.00 0.00 0.00 88 1019.9
20260902014601 11 109 0.0 3.2 0.00 0.00 0.00 88 1019.9
20260902014545 11 109 0.0 3.2 0.00 0.00 0.00 88 1019.9
20260902014445 11 109 0.0 3.2 0.00 0.00 0.00 88 1019.9
20260902014345 11 109 0.0 3.2 0.00 0.00 0.00 87 1019.9
20260902014244 11 109 0.0 3.2 0.00 0.00 0.00 87 1019.9
20260902014144 11 109 0.0 1.6 0.00 0.00 0.00 87 1019.9
20260902014100 11 109 0.0 0.0 0.00 0.00 0.00 87 1019.9
20260902014044 11 109 0.0 0.0 0.00 0.00 0.00 87 1019.9
20260902013944 11 109 0.0 0.0 0.00 0.00 0.00 87 1019.9
20260902013842 11 109 0.0 0.0 0.00 0.00 0.00 87 1019.9
20260902013742 11 109 0.0 0.0 0.00 0.00 0.00 87 1020.0
20260902013640 11 109 0.0 0.0 0.00 0.00 0.00 87 1020.0
20260902013601 11 109 0.0 0.0 0.00 0.00 0.00 87 1020.0
20260902013539 11 109 0.0 0.0 0.00 0.00 0.00 87 1020.0
20260902013438 11 109 0.0 0.0 0.00 0.00 0.00 87 1020.0
20260902013337 11 109 0.0 0.0 0.00 0.00 0.00 86 1020.0
20260902013234 11 109 0.0 0.0 0.00 0.00 0.00 86 1020.0
20260902013134 11 109 0.0 0.0 0.00 0.00 0.00 86 1020.0
20260902013101 11 109 0.0 0.0 0.00 0.00 0.00 86 1020.0
20260902013032 11 109 0.0 0.0 0.00 0.00 0.00 86 1020.0
20260902012932 11 109 0.0 1.6 0.00 0.00 0.00 87 1020.0
20260902012830 11 109 0.0 1.6 0.00 0.00 0.00 87 1020.0
20260902012730 11 109 0.0 1.6 0.00 0.00 0.00 87 1020.0
20260902012601 11 109 0.0 1.6 0.00 0.00 0.00 87 1020.0
20260902012529 11 109 0.0 1.6 0.00 0.00 0.00 87 1020.0
20260902012429 11 109 0.0 1.6 0.00 0.00 0.00 87 1020.0
20260902012329 11 109 0.0 3.2 0.00 0.00 0.00 88 1020.0
20260902012229 11 109 0.0 3.2 0.00 0.00 0.00 88 1020.1
20260902012101 11 109 0.0 3.2 0.00 0.00 0.00 88 1020.0
20260902012041 11 109 0.0 3.2 0.00 0.00 0.00 89 1020.0
20260902012037 11 109 0.0 3.2 0.00 0.00 0.00 89 1020.0
20260902012029 11 109 1.6 3.2 0.00 0.00 0.00 89 1020.0
20260902012025 11 109 1.6 3.2 0.00 0.00 0.00 89 1020.0
20260902012021 11 109 1.6 3.2 0.00 0.00 0.00 89 1020.0
20260902012017 11 109 1.6 3.2 0.00 0.00 0.00 89 1020.0
20260902011548 11 109 1.6 3.2 0.00 0.00 0.00 89 1020.0
20260902011540 11 109 0.0 3.2 0.00 0.00 0.00 89 1020.0
20260902011321 11 109 0.0 3.2 0.00 0.00 0.00 89 1020.0
20260902011317 11 109 0.0 3.2 0.00 0.00 0.00 89 1020.0
20260902011313 11 109 0.0 3.2 0.00 0.00 0.00 89 1020.0
20260902011016 11 109 0.0 3.2 0.00 0.00 0.00 89 1020.0
20260902010910 11 109 0.0 3.2 0.00 0.00 0.00 89 1019.9
20260902010810 11 109 0.0 3.2 0.00 0.00 0.00 89 1020.0
20260902010710 12 109 0.0 3.2 0.00 0.00 0.00 89 1019.9
20260902010600 11 109 1.6 3.2 0.00 0.00 0.00 89 1020.0
20260902010509 11 109 1.6 3.2 0.00 0.00 0.00 89 1020.0
20260902010406 12 109 1.6 3.2 0.00 0.00 0.00 89 1020.0
20260902010306 11 109 1.6 4.8 0.00 0.00 0.00 89 1020.0
20260902010205 12 109 1.6 4.8 0.00 0.00 0.00 89 1020.0
20260902010100 11 109 1.6 4.8 0.00 0.00 0.00 89 1020.0
20260902010006 12 109 1.6 4.8 0.00 0.00 0.00 89 1019.9
20260902005902 11 109 1.6 4.8 0.00 0.00 0.00 89 1020.0
20260902005802 11 109 1.6 4.8 0.00 0.00 0.00 89 1020.0
20260902005702 11 109 1.6 4.8 0.00 0.00 0.00 90 1020.0
20260902005604 11 108 1.6 4.8 0.00 0.00 0.00 90 1020.0
20260902005502 11 108 1.6 4.8 0.00 0.00 0.00 90 1020.0
20260902005401 11 107 1.6 4.8 0.00 0.00 0.00 90 1020.0
20260902005301 11 107 1.6 4.8 0.00 0.00 0.00 89 1020.0
20260902005201 11 105 1.6 4.8 0.00 0.00 0.00 90 1020.0
20260902005102 11 105 1.6 4.8 0.00 0.00 0.00 90 1020.0
20260902005001 11 103 1.6 3.2 0.00 0.00 0.00 89 1020.0
20260902004901 11 103 1.6 3.2 0.00 0.00 0.00 89 1020.0
20260902004801 11 104 1.6 3.2 0.00 0.00 0.00 89 1020.0
20260902004701 11 104 1.6 3.2 0.00 0.00 0.00 89 1020.0
20260902004601 11 104 1.6 3.2 0.00 0.00 0.00 89 1020.0
20260902004500 11 104 1.6 3.2 0.00 0.00 0.00 89 1020.0
20260902004401 11 104 1.6 3.2 0.00 0.00 0.00 89 1020.0
20260902004301 11 104 1.6 3.2 0.00 0.00 0.00 89 1020.1
20260902004200 11 104 1.6 3.2 0.00 0.00 0.00 89 1020.1
20260902004100 11 104 1.6 3.2 0.00 0.00 0.00 89 1020.1
20260902004001 11 104 1.6 3.2 0.00 0.00 0.00 89 1020.1
20260902003900 11 104 0.0 3.2 0.00 0.00 0.00 89 1020.1
20260902003800 12 105 0.0 3.2 0.00 0.00 0.00 89 1020.1
20260902003700 12 104 0.0 3.2 0.00 0.00 0.00 89 1020.1
20260902003601 11 104 0.0 3.2 0.00 0.00 0.00 88 1020.1
20260902003501 12 104 0.0 3.2 0.00 0.00 0.00 88 1020.1
20260902003400 12 104 0.0 3.2 0.00 0.00 0.00 88 1020.1
20260902003321 12 104 0.0 3.2 0.00 0.00 0.00 89 1020.1
20260902003317 12 104 0.0 3.2 0.00 0.00 0.00 89 1020.1
20260902003313 12 104 0.0 3.2 0.00 0.00 0.00 89 1020.0
20260902003000 12 104 0.0 3.2 0.00 0.00 0.00 89 1020.1
20260902002901 12 104 0.0 3.2 0.00 0.00 0.00 89 1020.1
20260902002802 12 104 0.0 4.8 0.00 0.00 0.00 89 1020.1
20260902002702 12 104 0.0 4.8 0.00 0.00 0.00 89 1020.1
20260902002601 12 103 1.6 4.8 0.00 0.00 0.00 89 1020.1
20260902002501 12 104 1.6 4.8 0.00 0.00 0.00 89 1020.1
20260902002401 12 104 1.6 4.8 0.00 0.00 0.00 89 1020.1
20260902002321 12 103 1.6 4.8 0.00 0.00 0.00 89 1020.1
20260902002316 12 104 1.6 4.8 0.00 0.00 0.00 89 1020.1
20260902002312 12 104 1.6 4.8 0.00 0.00 0.00 89 1020.1
20260902002308 12 104 1.6 4.8 0.00 0.00 0.00 89 1020.1
20260902002001 12 104 1.6 4.8 0.00 0.00 0.00 89 1020.1
20260902001901 12 103 1.6 4.8 0.00 0.00 0.00 89 1020.1
20260902001801 12 102 1.6 4.8 0.00 0.00 0.00 89 1020.1
20260902001701 12 98 1.6 4.8 0.00 0.00 0.00 89 1020.1
20260902001600 12 98 1.6 4.8 0.00 0.00 0.00 89 1020.1
20260902001551 12 98 1.6 4.8 0.00 0.00 0.00 88 1020.1
20260902001501 12 99 1.6 4.8 0.00 0.00 0.00 88 1020.1
20260902001400 12 98 1.6 4.8 0.00 0.00 0.00 88 1020.1
20260902001300 12 97 1.6 4.8 0.00 0.00 0.00 88 1020.1
20260902001201 12 96 1.6 4.8 0.00 0.00 0.00 88 1020.2
20260902001101 12 96 1.6 4.8 0.00 0.00 0.00 88 1020.2
20260902001046 12 96 1.6 4.8 0.00 0.00 0.00 88 1020.2
20260902001001 12 89 1.6 4.8 0.00 0.00 0.00 88 1020.2
20260902000901 12 86 1.6 4.8 0.00 0.00 0.00 88 1020.2
20260902000801 12 82 1.6 4.8 0.00 0.00 0.00 88 1020.2
20260902000701 12 78 1.6 4.8 0.00 0.00 0.00 88 1020.2
20260902000601 12 78 1.6 4.8 0.00 0.00 0.00 88 1020.2
20260902000539 12 78 1.6 4.8 0.00 0.00 0.00 87 1020.2
20260902000500 12 78 1.6 4.8 0.00 0.00 0.00 87 1020.1
20260902000359 12 77 1.6 4.8 0.00 0.00 0.00 87 1020.2
20260902000257 12 77 1.6 4.8 0.00 0.00 0.00 87 1020.2
20260902000156 12 76 1.6 4.8 0.00 0.00 0.00 87 1020.2
20260902000036 12 76 1.6 4.8 0.00 0.00 0.00 87 1020.2
20260901235954 12 76 1.6 4.8 0.00 0.00 0.00 87 1020.3
20260901235851 12 74 1.6 3.2 0.00 0.00 0.00 87 1020.2
20260901235750 12 64 1.6 3.2 0.00 0.00 0.00 87 1020.2
20260901235650 12 63 1.6 3.2 0.00 0.00 0.00 87 1020.2
20260901235536 12 63 1.6 3.2 0.00 0.00 0.00 87 1020.2
20260901235528 12 63 1.6 3.2 0.00 0.00 0.00 87 1020.2
20260901235521 12 63 1.6 3.2 0.00 0.00 0.00 87 1020.2
20260901235513 12 63 1.6 3.2 0.00 0.00 0.00 87 1020.2
20260901235256 12 63 1.6 3.2 0.00 0.00 0.00 87 1020.2
20260901235252 12 63 1.6 3.2 0.00 0.00 0.00 87 1020.2
20260901235248 12 63 1.6 3.2 0.00 0.00 0.00 87 1020.2
20260901234942 12 63 1.6 3.2 0.00 0.00 0.00 87 1020.2
20260901234840 12 63 1.6 3.2 0.00 0.00 0.00 87 1020.2
20260901234755 12 63 0.0 3.2 0.00 0.00 0.00 86 1020.2
20260901234751 12 63 0.0 3.2 0.00 0.00 0.00 86 1020.2
20260901234747 12 63 0.0 3.2 0.00 0.00 0.00 86 1020.2
20260901234436 12 63 0.0 3.2 0.00 0.00 0.00 86 1020.2
20260901234336 12 63 0.0 3.2 0.00 0.00 0.00 86 1020.3
20260901234236 12 63 1.6 3.2 0.00 0.00 0.00 86 1020.3
20260901234136 12 63 1.6 3.2 0.00 0.00 0.00 86 1020.3
20260901234035 12 62 1.6 3.2 0.00 0.00 0.00 86 1020.3
20260901233934 12 62 1.6 3.2 0.00 0.00 0.00 86 1020.3
20260901233833 12 62 1.6 3.2 0.00 0.00 0.00 86 1020.2
20260901233755 12 62 1.6 3.2 0.00 0.00 0.00 86 1020.3
20260901233751 12 62 1.6 3.2 0.00 0.00 0.00 86 1020.3
20260901233747 12 62 0.0 3.2 0.00 0.00 0.00 86 1020.3
20260901233432 12 62 0.0 3.2 0.00 0.00 0.00 87 1020.3
20260901233331 12 60 0.0 3.2 0.00 0.00 0.00 86 1020.3
20260901233258 12 59 0.0 1.6 0.00 0.00 0.00 86 1020.3
20260901233250 12 60 0.0 3.2 0.00 0.00 0.00 86 1020.2
20260901233245 12 60 0.0 1.6 0.00 0.00 0.00 86 1020.3
20260901233030 12 59 0.0 1.6 0.00 0.00 0.00 86 1020.3
20260901232930 12 59 0.0 0.0 0.00 0.00 0.00 86 1020.3
20260901232830 12 59 0.0 0.0 0.00 0.00 0.00 86 1020.3
20260901232730 12 59 0.0 0.0 0.00 0.00 0.00 86 1020.3
20260901232629 12 59 0.0 1.6 0.00 0.00 0.00 86 1020.3
20260901232529 12 59 0.0 3.2 0.00 0.00 0.00 86 1020.3
20260901232429 12 59 0.0 3.2 0.00 0.00 0.00 86 1020.3
20260901232329 12 59 0.0 3.2 0.00 0.00 0.00 86 1020.3
20260901232257 12 59 0.0 3.2 0.00 0.00 0.00 86 1020.3
20260901232249 12 59 0.0 3.2 0.00 0.00 0.00 86 1020.3
20260901232245 12 59 0.0 3.2 0.00 0.00 0.00 86 1020.3
20260901232029 12 59 0.0 3.2 0.00 0.00 0.00 87 1020.3
20260901231929 12 59 0.0 3.2 0.00 0.00 0.00 87 1020.3
20260901231829 12 59 0.0 3.2 0.00 0.00 0.00 86 1020.3
20260901231729 12 59 0.0 3.2 0.00 0.00 0.00 86 1020.3
20260901231629 12 59 0.0 3.2 0.00 0.00 0.00 86 1020.3
20260901231529 12 59 0.0 3.2 0.00 0.00 0.00 86 1020.3
20260901231429 12 59 0.0 3.2 0.00 0.00 0.00 86 1020.3
20260901231329 12 59 0.0 1.6 0.00 0.00 0.00 86 1020.3
20260901231254 12 59 0.0 1.6 0.00 0.00 0.00 86 1020.3
20260901231247 12 59 0.0 1.6 0.00 0.00 0.00 86 1020.3
20260901231243 12 59 0.0 1.6 0.00 0.00 0.00 86 1020.3
20260901231028 12 59 0.0 1.6 0.00 0.00 0.00 86 1020.3
20260901231022 13 59 1.6 1.6 0.00 0.00 0.00 86 1020.3
20260901231018 12 59 0.0 1.6 0.00 0.00 0.00 86 1020.3
20260901231006 13 59 0.0 1.6 0.00 0.00 0.00 86 1020.3
20260901230748 13 59 0.0 1.6 0.00 0.00 0.00 86 1020.3
20260901230744 13 59 0.0 1.6 0.00 0.00 0.00 86 1020.3
20260901230529 13 59 1.6 1.6 0.00 0.00 0.00 86 1020.3
20260901230428 13 59 1.6 1.6 0.00 0.00 0.00 86 1020.3
20260901230330 13 59 1.6 3.2 0.00 0.00 0.00 86 1020.3
20260901230229 13 59 1.6 3.2 0.00 0.00 0.00 86 1020.3
20260901230127 13 59 1.6 3.2 0.00 0.00 0.00 86 1020.3
20260901230028 13 59 1.6 3.2 0.00 0.00 0.00 86 1020.4
20260901225928 13 59 1.6 3.2 0.00 0.00 0.00 86 1020.3
20260901225826 13 59 1.6 3.2 0.00 0.00 0.00 86 1020.3
20260901225752 13 59 1.6 3.2 0.00 0.00 0.00 86 1020.3
20260901225744 13 59 1.6 3.2 0.00 0.00 0.00 86 1020.3
20260901225740 13 59 1.6 3.2 0.00 0.00 0.00 86 1020.3
20260901225522 13 59 1.6 3.2 0.00 0.00 0.00 86 1020.3
20260901225420 13 59 1.6 3.2 0.00 0.00 0.00 86 1020.3
20260901225320 13 59 1.6 3.2 0.00 0.00 0.00 86 1020.3
20260901225249 13 58 1.6 3.2 0.00 0.00 0.00 86 1020.3
20260901225243 13 59 1.6 3.2 0.00 0.00 0.00 86 1020.3
20260901225239 13 59 1.6 3.2 0.00 0.00 0.00 86 1020.3
20260901225020 13 58 1.6 3.2 0.00 0.00 0.00 86 1020.3
20260901224920 13 57 1.6 3.2 0.00 0.00 0.00 86 1020.3
20260901224817 13 57 0.0 3.2 0.00 0.00 0.00 86 1020.3
20260901224718 13 57 0.0 3.2 0.00 0.00 0.00 86 1020.3
20260901224618 13 57 1.6 3.2 0.00 0.00 0.00 86 1020.3
20260901224518 13 57 1.6 3.2 0.00 0.00 0.00 86 1020.3
20260901224416 13 57 1.6 3.2 0.00 0.00 0.00 86 1020.4
20260901224316 13 57 0.0 3.2 0.00 0.00 0.00 86 1020.3
20260901224253 13 57 1.6 3.2 0.00 0.00 0.00 86 1020.4
20260901224243 13 57 1.6 3.2 0.00 0.00 0.00 86 1020.3
20260901224239 13 57 1.6 3.2 0.00 0.00 0.00 86 1020.4
20260901224011 13 57 1.6 3.2 0.00 0.00 0.00 86 1020.3
20260901223911 13 57 1.6 3.2 0.00 0.00 0.00 86 1020.3
20260901223810 13 57 1.6 3.2 0.00 0.00 0.00 85 1020.3
20260901223707 13 52 1.6 3.2 0.00 0.00 0.00 86 1020.4
20260901223607 13 48 1.6 3.2 0.00 0.00 0.00 85 1020.4
20260901223528 13 47 1.6 3.2 0.00 0.00 0.00 85 1020.4
20260901223506 13 47 0.0 3.2 0.00 0.00 0.00 85 1020.4
20260901223404 13 47 0.0 3.2 0.00 0.00 0.00 86 1020.4
20260901223304 13 47 0.0 3.2 0.00 0.00 0.00 86 1020.4
20260901223202 13 47 0.0 3.2 0.00 0.00 0.00 86 1020.4
20260901223102 13 47 0.0 3.2 0.00 0.00 0.00 86 1020.4
20260901223002 13 46 0.0 3.2 0.00 0.00 0.00 86 1020.4
20260901222901 13 46 0.0 3.2 0.00 0.00 0.00 86 1020.5
20260901222802 13 33 0.0 3.2 0.00 0.00 0.00 85 1020.4
20260901222702 13 12 0.0 3.2 0.00 0.00 0.00 85 1020.4
20260901222600 13 12 0.0 3.2 0.00 0.00 0.00 85 1020.4
20260901222501 13 12 0.0 3.2 0.00 0.00 0.00 85 1020.4
20260901222401 13 12 0.0 3.2 0.00 0.00 0.00 85 1020.5
20260901222300 13 12 0.0 3.2 0.00 0.00 0.00 85 1020.5
20260901222200 13 12 0.0 3.2 0.00 0.00 0.00 85 1020.5
20260901222101 13 12 0.0 3.2 0.00 0.00 0.00 85 1020.5
20260901222001 13 12 0.0 3.2 0.00 0.00 0.00 85 1020.5
20260901221901 13 5 0.0 3.2 0.00 0.00 0.00 85 1020.4
20260901221801 13 5 0.0 3.2 0.00 0.00 0.00 85 1020.5
20260901221749 13 5 0.0 3.2 0.00 0.00 0.00 85 1020.5
20260901221744 13 5 0.0 3.2 0.00 0.00 0.00 85 1020.5
20260901221740 13 5 0.0 3.2 0.00 0.00 0.00 85 1020.5
20260901221500 13 5 0.0 3.2 0.00 0.00 0.00 85 1020.5
20260901221400 13 5 0.0 3.2 0.00 0.00 0.00 85 1020.5
20260901221301 13 5 0.0 3.2 0.00 0.00 0.00 84 1020.5
20260901221200 13 5 0.0 3.2 0.00 0.00 0.00 84 1020.5
20260901221100 13 5 0.0 3.2 0.00 0.00 0.00 85 1020.5
20260901221029 13 5 0.0 3.2 0.00 0.00 0.00 85 1020.5
20260901221001 13 0 0.0 3.2 0.00 0.00 0.00 85 1020.5
20260901220901 13 0 0.0 3.2 0.00 0.00 0.00 84 1020.5
20260901220801 13 0 0.0 3.2 0.00 0.00 0.00 84 1020.5
20260901220701 13 0 0.0 3.2 0.00 0.00 0.00 84 1020.5
20260901220601 13 0 0.0 3.2 0.00 0.00 0.00 84 1020.5
20260901220500 13 336 0.0 3.2 0.00 0.00 0.00 84 1020.5
20260901220400 13 336 0.0 3.2 0.00 0.00 0.00 84 1020.5
20260901220301 13 336 0.0 1.6 0.00 0.00 0.00 84 1020.5
20260901220200 13 336 0.0 1.6 0.00 0.00 0.00 84 1020.5
20260901220001 13 336 0.0 1.6 0.00 0.00 0.00 84 1020.5
20260901215901 13 336 0.0 1.6 0.00 0.00 0.00 84 1020.5
20260901215801 13 336 0.0 1.6 0.00 0.00 0.00 84 1020.6
20260901215701 13 336 0.0 1.6 0.00 0.00 0.00 84 1020.6
20260901215601 13 336 0.0 1.6 0.00 0.00 0.00 84 1020.5
20260901215501 13 336 0.0 1.6 0.00 0.00 0.00 84 1020.5
20260901215401 13 336 0.0 1.6 0.00 0.00 0.00 84 1020.5
20260901215301 13 336 0.0 3.2 0.00 0.00 0.00 84 1020.5
20260901215201 13 336 0.0 3.2 0.00 0.00 0.00 84 1020.5
20260901215101 13 336 0.0 3.2 0.00 0.00 0.00 84 1020.5
20260901215000 13 336 0.0 3.2 0.00 0.00 0.00 84 1020.5
20260901214901 13 336 0.0 3.2 0.00 0.00 0.00 84 1020.5
20260901214801 13 336 0.0 3.2 0.00 0.00 0.00 84 1020.5
20260901214700 13 335 0.0 3.2 0.00 0.00 0.00 84 1020.5
20260901214600 13 335 0.0 3.2 0.00 0.00 0.00 84 1020.5
20260901214500 13 335 0.0 3.2 0.00 0.00 0.00 84 1020.5
20260901214359 13 335 0.0 3.2 0.00 0.00 0.00 84 1020.5
20260901214259 13 335 0.0 3.2 0.00 0.00 0.00 84 1020.5
20260901214159 13 333 0.0 3.2 0.00 0.00 0.00 84 1020.5
20260901214059 14 333 0.0 3.2 0.00 0.00 0.00 84 1020.5
20260901214029 13 333 0.0 1.6 0.00 0.00 0.00 84 1020.5
20260901213954 14 332 0.0 0.0 0.00 0.00 0.00 84 1020.5
20260901213852 14 332 0.0 0.0 0.00 0.00 0.00 84 1020.5
20260901213753 14 332 0.0 0.0 0.00 0.00 0.00 84 1020.5
20260901213650 14 332 0.0 0.0 0.00 0.00 0.00 84 1020.4
20260901213529 14 332 0.0 0.0 0.00 0.00 0.00 84 1020.5
20260901213450 14 332 0.0 1.6 0.00 0.00 0.00 84 1020.4
20260901213350 14 332 0.0 1.6 0.00 0.00 0.00 84 1020.4
20260901213250 14 332 0.0 1.6 0.00 0.00 0.00 84 1020.5
20260901213148 14 332 0.0 1.6 0.00 0.00 0.00 83 1020.4
20260901213029 14 332 0.0 1.6 0.00 0.00 0.00 83 1020.5
20260901212949 14 332 0.0 1.6 0.00 0.00 0.00 83 1020.4
20260901212849 14 332 0.0 1.6 0.00 0.00 0.00 83 1020.4
20260901212749 14 332 0.0 1.6 0.00 0.00 0.00 83 1020.5
20260901212745 14 332 0.0 1.6 0.00 0.00 0.00 83 1020.5
20260901212740 14 332 0.0 1.6 0.00 0.00 0.00 83 1020.4
20260901212731 14 332 0.0 1.6 0.00 0.00 0.00 83 1020.4
20260901212515 14 332 0.0 1.6 0.00 0.00 0.00 83 1020.4
20260901212511 14 332 0.0 1.6 0.00 0.00 0.00 83 1020.4
20260901212249 14 332 0.0 1.6 0.00 0.00 0.00 83 1020.4
20260901212245 14 332 0.0 1.6 0.00 0.00 0.00 83 1020.4
20260901212240 14 332 0.0 1.6 0.00 0.00 0.00 83 1020.5
20260901211943 14 332 0.0 1.6 0.00 0.00 0.00 83 1020.4
20260901211842 14 332 0.0 1.6 0.00 0.00 0.00 83 1020.4
20260901211748 14 332 0.0 1.6 0.00 0.00 0.00 83 1020.4
20260901211744 14 332 0.0 1.6 0.00 0.00 0.00 83 1020.4
20260901211739 14 332 0.0 1.6 0.00 0.00 0.00 83 1020.4
20260901211443 14 332 0.0 1.6 0.00 0.00 0.00 83 1020.4
20260901211343 14 332 0.0 1.6 0.00 0.00 0.00 83 1020.4
20260901211243 14 332 0.0 1.6 0.00 0.00 0.00 83 1020.4
20260901211143 14 332 0.0 1.6 0.00 0.00 0.00 83 1020.4
20260901211028 14 332 0.0 3.2 0.00 0.00 0.00 83 1020.4
20260901210943 14 332 0.0 3.2 0.00 0.00 0.00 83 1020.4
20260901210842 14 332 1.6 3.2 0.00 0.00 0.00 82 1020.4
20260901210743 14 332 1.6 3.2 0.00 0.00 0.00 82 1020.4
20260901210643 14 332 1.6 3.2 0.00 0.00 0.00 82 1020.4
20260901210528 14 332 1.6 3.2 0.00 0.00 0.00 82 1020.4
20260901210442 14 332 1.6 3.2 0.00 0.00 0.00 82 1020.4
20260901210409 14 332 1.6 3.2 0.00 0.00 0.00 82 1020.4
20260901210239 14 331 1.6 3.2 0.00 0.00 0.00 82 1020.4
20260901210139 14 331 0.0 3.2 0.00 0.00 0.00 82 1020.4
20260901210039 14 331 0.0 3.2 0.00 0.00 0.00 82 1020.4
20260901210028 15 331 0.0 3.2 0.00 0.00 0.00 82 1020.4
20260901205938 15 331 0.0 3.2 0.00 0.00 0.00 82 1020.4
20260901205838 15 331 0.0 3.2 0.00 0.00 0.00 82 1020.4
20260901205749 15 331 0.0 3.2 0.00 0.00 0.00 82 1020.4
20260901205745 15 331 0.0 3.2 0.00 0.00 0.00 82 1020.4
20260901205741 15 331 0.0 1.6 0.00 0.00 0.00 82 1020.4
20260901205438 15 331 0.0 1.6 0.00 0.00 0.00 82 1020.4
20260901205339 15 331 0.0 1.6 0.00 0.00 0.00 82 1020.4
20260901205238 15 331 0.0 1.6 0.00 0.00 0.00 82 1020.4
20260901205139 15 331 0.0 1.6 0.00 0.00 0.00 82 1020.3
20260901205028 15 331 0.0 1.6 0.00 0.00 0.00 82 1020.3
20260901204939 15 331 0.0 1.6 0.00 0.00 0.00 81 1020.3
20260901204838 15 331 0.0 1.6 0.00 0.00 0.00 81 1020.4
20260901204738 15 331 0.0 1.6 0.00 0.00 0.00 81 1020.3
20260901204638 15 331 0.0 1.6 0.00 0.00 0.00 81 1020.3
20260901204529 15 331 0.0 1.6 0.00 0.00 0.00 81 1020.3
20260901204435 15 331 0.0 1.6 0.00 0.00 0.00 81 1020.3
20260901204336 15 331 0.0 1.6 0.00 0.00 0.00 81 1020.3
20260901204234 15 331 0.0 1.6 0.00 0.00 0.00 81 1020.3
20260901204134 15 331 0.0 1.6 0.00 0.00 0.00 81 1020.3
20260901204029 15 331 0.0 1.6 0.00 0.00 0.00 81 1020.3
20260901203935 15 331 0.0 1.6 0.00 0.00 0.00 81 1020.3
20260901203835 15 331 0.0 1.6 0.00 0.00 0.00 81 1020.3
20260901203735 15 331 0.0 1.6 0.00 0.00 0.00 81 1020.3
20260901203634 15 331 0.0 1.6 0.00 0.00 0.00 81 1020.3
20260901203528 15 331 0.0 1.6 0.00 0.00 0.00 81 1020.3
20260901203516 15 331 0.0 1.6 0.00 0.00 0.00 82 1020.3
20260901203512 15 331 0.0 1.6 0.00 0.00 0.00 81 1020.3
20260901203508 15 331 0.0 1.6 0.00 0.00 0.00 81 1020.3
20260901203248 15 331 0.0 1.6 0.00 0.00 0.00 82 1020.3
20260901203244 15 331 0.0 1.6 0.00 0.00 0.00 82 1020.3
20260901203240 15 331 0.0 1.6 0.00 0.00 0.00 82 1020.3
20260901202934 15 331 0.0 1.6 0.00 0.00 0.00 82 1020.3
20260901202834 15 331 0.0 1.6 0.00 0.00 0.00 81 1020.3
20260901202738 15 331 0.0 1.6 0.00 0.00 0.00 81 1020.4
20260901202634 15 331 0.0 1.6 0.00 0.00 0.00 81 1020.3
20260901202529 15 331 0.0 1.6 0.00 0.00 0.00 81 1020.3
20260901202431 15 331 0.0 1.6 0.00 0.00 0.00 81 1020.3
20260901202331 15 331 0.0 1.6 0.00 0.00 0.00 81 1020.3
20260901202253 15 331 0.0 0.0 0.00 0.00 0.00 81 1020.3
20260901202245 15 331 0.0 0.0 0.00 0.00 0.00 81 1020.2
20260901202240 15 331 0.0 0.0 0.00 0.00 0.00 81 1020.3
20260901201931 15 331 0.0 0.0 0.00 0.00 0.00 81 1020.2
20260901201831 15 331 0.0 0.0 0.00 0.00 0.00 81 1020.2
20260901201733 15 331 0.0 0.0 0.00 0.00 0.00 81 1020.3
20260901201631 15 331 0.0 0.0 0.00 0.00 0.00 80 1020.2
20260901201528 15 331 0.0 0.0 0.00 0.00 0.00 80 1020.2
20260901201431 15 331 0.0 0.0 0.00 0.00 0.00 80 1020.2
20260901201330 15 331 0.0 0.0 0.00 0.00 0.00 80 1020.2
20260901201230 15 331 0.0 0.0 0.00 0.00 0.00 80 1020.3
20260901201131 15 331 0.0 0.0 0.00 0.00 0.00 80 1020.3
20260901201028 15 331 0.0 0.0 0.00 0.00 0.00 80 1020.3
20260901200930 15 331 0.0 0.0 0.00 0.00 0.00 80 1020.3
20260901200830 15 331 0.0 0.0 0.00 0.00 0.00 80 1020.2
20260901200731 16 331 0.0 0.0 0.00 0.00 0.00 80 1020.2
20260901200630 16 331 0.0 0.0 0.00 0.00 0.00 80 1020.2
20260901200529 16 331 0.0 1.6 0.00 0.00 0.00 80 1020.2
20260901200431 16 331 0.0 1.6 0.00 0.00 0.00 79 1020.2
20260901200330 16 331 0.0 1.6 0.00 0.00 0.00 79 1020.2
20260901200252 16 331 0.0 1.6 0.00 0.00 0.00 79 1020.2
20260901200244 16 331 0.0 1.6 0.00 0.00 0.00 79 1020.2
20260901200240 16 331 0.0 1.6 0.00 0.00 0.00 78 1020.1
20260901195928 16 331 0.0 1.6 0.00 0.00 0.00 79 1020.2
20260901195829 16 331 0.0 1.6 0.00 0.00 0.00 78 1020.2
20260901195751 16 331 0.0 1.6 0.00 0.00 0.00 79 1020.2
20260901195743 16 331 0.0 1.6 0.00 0.00 0.00 78 1020.1
20260901195739 16 331 0.0 1.6 0.00 0.00 0.00 79 1020.1
20260901195429 16 331 0.0 0.0 0.00 0.00 0.00 79 1020.1
20260901195329 16 331 0.0 0.0 0.00 0.00 0.00 79 1020.1
20260901195229 16 331 0.0 0.0 0.00 0.00 0.00 79 1020.2
20260901195128 16 331 0.0 0.0 0.00 0.00 0.00 78 1020.1
20260901195022 16 331 0.0 0.0 0.00 0.00 0.00 78 1020.2
20260901194929 16 331 0.0 0.0 0.00 0.00 0.00 77 1020.2
20260901194828 16 331 0.0 0.0 0.00 0.00 0.00 77 1020.1
20260901194728 16 331 0.0 0.0 0.00 0.00 0.00 77 1020.2
20260901194629 16 331 0.0 0.0 0.00 0.00 0.00 77 1020.1
20260901194516 16 331 0.0 0.0 0.00 0.00 0.00 77 1020.1
20260901194428 16 331 0.0 0.0 0.00 0.00 0.00 77 1020.1
20260901194328 16 331 0.0 0.0 0.00 0.00 0.00 77 1020.1
20260901194229 16 331 0.0 0.0 0.00 0.00 0.00 77 1020.0
20260901194128 16 331 0.0 0.0 0.00 0.00 0.00 76 1020.0
20260901194010 16 331 0.0 0.0 0.00 0.00 0.00 76 1020.0
20260901193928 16 331 0.0 0.0 0.00 0.00 0.00 76 1020.0
20260901193828 16 331 0.0 0.0 0.00 0.00 0.00 76 1020.0
20260901193725 16 331 0.0 0.0 0.00 0.00 0.00 75 1020.0
20260901193624 16 331 0.0 0.0 0.00 0.00 0.00 75 1020.0
20260901193510 16 331 0.0 0.0 0.00 0.00 0.00 76 1020.0
20260901193425 16 331 0.0 0.0 0.00 0.00 0.00 76 1020.0
20260901193324 16 331 0.0 0.0 0.00 0.00 0.00 76 1020.0
20260901193224 16 331 0.0 0.0 0.00 0.00 0.00 76 1020.0
20260901193124 16 331 0.0 0.0 0.00 0.00 0.00 76 1020.0
20260901193009 16 331 0.0 0.0 0.00 0.00 0.00 76 1020.0
20260901192923 16 331 0.0 0.0 0.00 0.00 0.00 75 1020.0
20260901192822 16 331 0.0 0.0 0.00 0.00 0.00 77 1019.9
20260901192723 16 331 0.0 0.0 0.00 0.00 0.00 77 1020.0
20260901192622 16 331 0.0 0.0 0.00 0.00 0.00 77 1019.9
20260901192507 16 331 0.0 0.0 0.00 0.00 0.00 77 1020.0
20260901192420 16 331 0.0 0.0 0.00 0.00 0.00 77 1019.9
20260901192321 16 331 0.0 0.0 0.00 0.00 0.00 77 1019.9
20260901192219 16 331 0.0 0.0 0.00 0.00 0.00 77 1019.9
20260901192116 16 331 0.0 0.0 0.00 0.00 0.00 77 1019.9
20260901192004 16 331 0.0 0.0 0.00 0.00 0.00 77 1019.9
20260901191917 16 331 0.0 0.0 0.00 0.00 0.00 77 1019.9
20260901191816 16 331 0.0 0.0 0.00 0.00 0.00 77 1019.9
20260901191716 17 331 0.0 0.0 0.00 0.00 0.00 77 1019.9
20260901191615 17 331 0.0 0.0 0.00 0.00 0.00 77 1020.0
20260901191504 17 331 0.0 0.0 0.00 0.00 0.00 77 1019.9
20260901191412 17 331 0.0 0.0 0.00 0.00 0.00 77 1020.0
20260901191311 17 331 0.0 0.0 0.00 0.00 0.00 77 1019.9
20260901191210 17 331 0.0 0.0 0.00 0.00 0.00 77 1019.9
20260901191108 17 331 0.0 0.0 0.00 0.00 0.00 77 1019.9
20260901191004 17 331 0.0 0.0 0.00 0.00 0.00 76 1019.9
20260901190906 17 331 0.0 0.0 0.00 0.00 0.00 76 1019.8
20260901190806 17 331 0.0 0.0 0.00 0.00 0.00 76 1019.9
20260901190705 17 331 0.0 0.0 0.00 0.00 0.00 76 1019.8
20260901190602 17 331 0.0 0.0 0.00 0.00 0.00 76 1019.8
20260901190502 17 331 0.0 0.0 0.00 0.00 0.00 76 1019.8
20260901190403 17 331 0.0 0.0 0.00 0.00 0.00 76 1019.8
20260901190301 17 331 0.0 1.6 0.00 0.00 0.00 76 1019.8
20260901190201 17 331 0.0 1.6 0.00 0.00 0.00 76 1019.7
20260901190001 17 331 0.0 1.6 0.00 0.00 0.00 75 1019.8
20260901185901 17 331 0.0 1.6 0.00 0.00 0.00 75 1019.8
20260901185801 17 331 0.0 1.6 0.00 0.00 0.00 75 1019.8
20260901185702 17 331 0.0 1.6 0.00 0.00 0.00 75 1019.8
20260901185601 17 331 0.0 1.6 0.00 0.00 0.00 74 1019.7
20260901185502 17 331 0.0 1.6 0.00 0.00 0.00 74 1019.7
20260901185401 17 331 0.0 1.6 0.00 0.00 0.00 74 1019.7
20260901185301 17 331 0.0 1.6 0.00 0.00 0.00 74 1019.7
20260901185201 17 331 0.0 1.6 0.00 0.00 0.00 74 1019.7
20260901185101 17 331 0.0 1.6 0.00 0.00 0.00 74 1019.7
20260901185000 17 331 0.0 1.6 0.00 0.00 0.00 74 1019.5
20260901184900 17 331 0.0 1.6 0.00 0.00 0.00 74 1019.5
20260901184800 18 331 0.0 1.6 0.00 0.00 0.00 73 1019.5
20260901184725 18 331 0.0 1.6 0.00 0.00 0.00 73 1019.5
20260901184716 18 331 0.0 1.6 0.00 0.00 0.00 73 1019.5
20260901184712 18 331 0.0 1.6 0.00 0.00 0.00 73 1019.5
20260901184401 18 331 0.0 0.0 0.00 0.00 0.00 73 1019.5
20260901184301 18 331 0.0 0.0 0.00 0.00 0.00 73 1019.5
20260901184200 18 331 0.0 0.0 0.00 0.00 0.00 72 1019.5
20260901184100 18 331 0.0 0.0 0.00 0.00 0.00 71 1019.5
20260901184000 18 331 0.0 0.0 0.00 0.00 0.00 71 1019.5
20260901183901 18 331 0.0 0.0 0.00 0.00 0.00 71 1019.5
20260901183801 18 331 0.0 0.0 0.00 0.00 0.00 71 1019.5
20260901183732 18 331 0.0 0.0 0.00 0.00 0.00 70 1019.5
20260901183722 18 331 0.0 0.0 0.00 0.00 0.00 71 1019.4
20260901183714 18 331 0.0 0.0 0.00 0.00 0.00 70 1019.4
20260901183458 18 331 0.0 0.0 0.00 0.00 0.00 70 1019.5
20260901183356 18 331 0.0 0.0 0.00 0.00 0.00 70 1019.5
20260901183256 18 331 0.0 0.0 0.00 0.00 0.00 70 1019.5
20260901183221 18 331 0.0 0.0 0.00 0.00 0.00 70 1019.4
20260901183213 18 331 0.0 0.0 0.00 0.00 0.00 70 1019.4
20260901182952 18 331 0.0 0.0 0.00 0.00 0.00 70 1019.4
20260901182852 18 331 0.0 0.0 0.00 0.00 0.00 70 1019.4
20260901182750 18 331 0.0 0.0 0.00 0.00 0.00 69 1019.4
20260901182648 18 331 0.0 0.0 0.00 0.00 0.00 69 1019.4
20260901182548 19 331 0.0 0.0 0.00 0.00 0.00 69 1019.4
20260901182501 19 331 0.0 0.0 0.00 0.00 0.00 69 1019.4
20260901182446 19 331 0.0 0.0 0.00 0.00 0.00 68 1019.4
20260901182346 19 331 0.0 0.0 0.00 0.00 0.00 68 1019.3
20260901182244 19 331 0.0 0.0 0.00 0.00 0.00 69 1019.3
20260901182221 19 331 0.0 0.0 0.00 0.00 0.00 68 1019.3
20260901182213 19 331 0.0 0.0 0.00 0.00 0.00 68 1019.3
20260901181940 19 331 0.0 0.0 0.00 0.00 0.00 67 1019.3
20260901181840 19 331 0.0 1.6 0.00 0.00 0.00 67 1019.3
20260901181740 19 331 0.0 1.6 0.00 0.00 0.00 67 1019.2
20260901181640 19 331 0.0 1.6 0.00 0.00 0.00 67 1019.3
20260901181540 19 331 0.0 1.6 0.00 0.00 0.00 67 1019.2
20260901181501 19 331 0.0 1.6 0.00 0.00 0.00 67 1019.3
20260901181438 19 331 0.0 1.6 0.00 0.00 0.00 67 1019.3
20260901181339 20 331 0.0 1.6 0.00 0.00 0.00 67 1019.2
20260901181236 20 331 0.0 1.6 0.00 0.00 0.00 67 1019.2
20260901181225 20 331 0.0 1.6 0.00 0.00 0.00 66 1019.2
20260901181219 20 331 0.0 1.6 0.00 0.00 0.00 67 1019.2
20260901181211 20 331 0.0 1.6 0.00 0.00 0.00 67 1019.2
20260901180933 20 331 0.0 1.6 0.00 0.00 0.00 66 1019.2
20260901180832 20 331 0.0 1.6 0.00 0.00 0.00 66 1019.1
20260901180730 20 331 0.0 1.6 0.00 0.00 0.00 65 1019.1
20260901180633 20 331 0.0 1.6 0.00 0.00 0.00 65 1019.1
20260901180501 20 331 0.0 1.6 0.00 0.00 0.00 64 1019.1
20260901180429 20 331 0.0 1.6 0.00 0.00 0.00 64 1019.1
20260901180329 20 331 0.0 1.6 0.00 0.00 0.00 61 1019.1
20260901180231 20 331 0.0 1.6 0.00 0.00 0.00 61 1019.2
20260901180226 20 331 0.0 1.6 0.00 0.00 0.00 61 1019.1
20260901180220 20 331 0.0 1.6 0.00 0.00 0.00 61 1019.2
20260901180213 20 331 0.0 1.6 0.00 0.00 0.00 61 1019.2
20260901175929 20 331 0.0 1.6 0.00 0.00 0.00 61 1019.1
20260901175829 20 331 0.0 0.0 0.00 0.00 0.00 61 1019.1
20260901175729 20 331 0.0 0.0 0.00 0.00 0.00 61 1019.1
20260901175632 20 331 0.0 0.0 0.00 0.00 0.00 61 1019.1
20260901175501 20 331 0.0 0.0 0.00 0.00 0.00 61 1019.1
20260901175424 20 331 0.0 0.0 0.00 0.00 0.00 61 1019.1
20260901175324 20 331 0.0 0.0 0.00 0.00 0.00 61 1019.2
20260901175224 20 331 0.0 0.0 0.00 0.00 0.00 61 1019.1
20260901175125 20 331 0.0 0.0 0.00 0.00 0.00 62 1019.1
20260901175001 20 331 0.0 1.6 0.00 0.00 0.00 62 1019.1
20260901174918 20 331 0.0 1.6 0.00 0.00 0.00 62 1019.1
20260901174818 20 331 0.0 1.6 0.00 0.00 0.00 62 1019.1
20260901174718 21 331 0.0 1.6 0.00 0.00 0.00 61 1019.0
20260901174620 21 331 1.6 3.2 0.00 0.00 0.00 62 1019.0
20260901174501 21 331 1.6 3.2 0.00 0.00 0.00 62 1019.1
20260901174414 21 331 1.6 3.2 0.00 0.00 0.00 61 1019.0
20260901174314 21 331 1.6 3.2 0.00 0.00 0.00 61 1019.1
20260901174212 21 331 1.6 3.2 0.00 0.00 0.00 61 1019.1
20260901174113 21 331 1.6 3.2 0.00 0.00 0.00 61 1019.0
20260901174000 21 331 1.6 3.2 0.00 0.00 0.00 61 1019.1
20260901173904 21 331 1.6 3.2 0.00 0.00 0.00 61 1019.1
20260901173804 21 331 1.6 3.2 0.00 0.00 0.00 60 1019.0
20260901173702 21 331 1.6 3.2 0.00 0.00 0.00 60 1019.1
20260901173606 21 331 1.6 3.2 0.00 0.00 0.00 61 1019.1
20260901173501 21 331 1.6 3.2 0.00 0.00 0.00 61 1019.1
20260901173401 21 331 1.6 3.2 0.00 0.00 0.00 60 1019.0
20260901173301 21 331 1.6 3.2 0.00 0.00 0.00 60 1019.0
20260901173224 21 331 1.6 3.2 0.00 0.00 0.00 60 1019.1
20260901173220 21 331 1.6 3.2 0.00 0.00 0.00 60 1019.0
20260901173212 21 331 1.6 4.8 0.00 0.00 0.00 60 1019.0
20260901172901 21 331 1.6 4.8 0.00 0.00 0.00 60 1019.1
20260901172801 21 331 1.6 4.8 0.00 0.00 0.00 60 1019.0
20260901172701 21 331 1.6 4.8 0.00 0.00 0.00 60 1019.1
20260901172601 21 331 1.6 4.8 0.00 0.00 0.00 59 1019.0
20260901172501 21 331 1.6 4.8 0.00 0.00 0.00 59 1019.0
20260901172401 21 331 1.6 4.8 0.00 0.00 0.00 58 1019.0
20260901172304 21 331 1.6 4.8 0.00 0.00 0.00 58 1019.1
20260901172224 21 331 1.6 4.8 0.00 0.00 0.00 58 1019.0
20260901172220 21 331 1.6 4.8 0.00 0.00 0.00 59 1019.1
20260901172212 21 331 1.6 4.8 0.00 0.00 0.00 58 1019.0
20260901171901 21 331 1.6 4.8 0.00 0.00 0.00 58 1019.0
20260901171801 21 331 1.6 4.8 0.00 0.00 0.00 58 1019.0
20260901171700 21 331 1.6 4.8 0.00 0.00 0.00 57 1019.0
20260901171600 21 331 1.6 4.8 0.00 0.00 0.00 58 1019.0
20260901171504 21 331 1.6 4.8 0.00 0.00 0.00 57 1019.0
20260901171459 21 331 1.6 4.8 0.00 0.00 0.00 57 1019.0
20260901171357 21 332 1.6 4.8 0.00 0.00 0.00 58 1019.0
20260901171254 21 332 1.6 4.8 0.00 0.00 0.00 58 1019.0
20260901171152 21 332 1.6 4.8 0.00 0.00 0.00 57 1019.0
20260901171052 21 332 1.6 4.8 0.00 0.00 0.00 57 1019.0
20260901171000 21 332 1.6 4.8 0.00 0.00 0.00 57 1019.0
20260901170952 21 332 1.6 4.8 0.00 0.00 0.00 57 1019.0
20260901170851 21 332 1.6 4.8 0.00 0.00 0.00 57 1018.9
20260901170750 21 332 1.6 4.8 0.00 0.00 0.00 57 1018.9
20260901170650 21 332 3.2 4.8 0.00 0.00 0.00 56 1019.0
20260901170550 21 332 3.2 6.4 0.00 0.00 0.00 56 1019.0
20260901170502 21 332 3.2 6.4 0.00 0.00 0.00 56 1019.0
20260901170447 21 332 3.2 8.0 0.00 0.00 0.00 56 1019.0
20260901170348 21 333 3.2 8.0 0.00 0.00 0.00 55 1019.0
20260901170248 21 332 3.2 8.0 0.00 0.00 0.00 55 1019.0
20260901170148 21 332 3.2 8.0 0.00 0.00 0.00 55 1019.0
20260901170050 21 332 4.8 8.0 0.00 0.00 0.00 55 1019.0
20260901170001 21 333 4.8 8.0 0.00 0.00 0.00 55 1019.1
20260901165946 22 333 4.8 8.0 0.00 0.00 0.00 55 1019.1
20260901165846 22 333 4.8 8.0 0.00 0.00 0.00 54 1019.1
20260901165746 22 333 4.8 8.0 0.00 0.00 0.00 54 1019.0
20260901165646 22 333 4.8 8.0 0.00 0.00 0.00 54 1019.1